[{"header": {"dx": 0.06612293990616946, "dy": 0.0552356325346848, "nx": 98, "ny": 59, "la1": 35.046912555036876, "la2": 31.78801023549047, "lo1": -121.43107172385933, "lo2": -114.95102361305473, "refTime": "2026041703", "parameterCategory": 1, "parameterNumber": 2}, "data": [11.3, 11.61, 11.93, 11.64, 11.29, 11.36, 11.03, 10.3, 10.34, 10.43, 9.62, 10.02, 11.88, 12.58, 11.71, 11.62, 11.62, 11.18, 11.62, 12.52, 12.96, 12.96, 11.62, 9.3, 0.0, -5.2, -5.99, -4.93, -3.32, -3.32, -1.77, 0.0, 0.0, 0.0, 2.02, 3.65, 3.49, 4.83, 3.49, 3.25, 4.4, 5.54, 7.44, 8.85, 12.52, 15.42, 19.41, 22.79, 19.22, 12.74, 12.5, 12.9, 13.59, 14.24, 14.24, 14.44, 14.6, 14.6, 14.6, 14.6, 14.44, 14.44, 14.03, 14.42, 14.42, 15.25, 15.68, 15.68, 15.68, 15.91, 16.05, 15.6, 15.6, 15.59, 15.6, 15.46, 14.71, 14.3, 14.73, 14.66, 14.16, 13.01, 10.37, 7.51, 8.53, 9.3, 10.24, 9.48, 10.0, 10.0, 10.99, 11.58, 11.69, 12.65, 12.51, 13.15, 12.83, 12.96, 11.61, 11.61, 11.93, 11.64, 11.66, 11.33, 11.03, 10.7, 10.34, 10.01, 9.32, 10.43, 11.5, 12.14, 12.58, 11.71, 10.18, 12.07, 11.45, 11.03, 11.99, 11.6, 12.3, 9.17, 0.0, -5.0, -6.45, -5.99, -4.75, -3.44, -2.35, 0.0, 0.0, 0.0, 1.58, 3.32, 4.14, 4.6, 4.83, 5.29, 6.94, 7.44, 7.54, 10.17, 14.77, 19.11, 22.79, 20.12, 11.09, 12.27, 13.19, 13.89, 14.11, 14.03, 14.03, 14.44, 14.6, 14.19, 14.6, 14.6, 14.6, 14.03, 14.03, 14.42, 14.42, 14.95, 15.68, 15.74, 15.78, 15.95, 16.5, 16.05, 16.04, 15.15, 15.15, 14.71, 14.75, 14.3, 14.73, 14.66, 14.16, 13.01, 10.37, 7.51, 8.53, 9.3, 10.24, 9.48, 10.0, 10.0, 10.99, 11.58, 11.69, 12.65, 12.51, 13.15, 12.83, 12.96, 11.61, 11.61, 11.93, 11.96, 11.96, 11.62, 10.99, 11.01, 10.37, 10.01, 9.62, 9.17, 11.88, 12.04, 11.4, 11.4, 11.62, 11.28, 11.45, 11.6, 9.67, 5.6, 5.6, 0.0, -3.36, -5.52, -6.7, -4.8, -5.0, -4.58, -4.05, -4.18, -2.81, 0.0, 1.67, 4.0, 4.37, 5.59, 6.95, 7.44, 7.95, 9.22, 11.96, 14.54, 18.31, 19.61, 17.43, 11.5, 12.65, 13.59, 14.23, 14.42, 14.56, 14.28, 13.62, 14.42, 14.53, 14.95, 14.95, 14.95, 14.95, 14.42, 14.42, 14.53, 14.53, 14.95, 15.04, 15.34, 15.53, 16.06, 16.06, 16.05, 15.6, 15.15, 14.75, 14.75, 15.2, 15.2, 14.23, 14.53, 14.14, 13.01, 9.17, 4.48, 5.77, 7.56, 8.41, 8.94, 9.77, 10.56, 11.9, 11.93, 12.09, 11.8, 12.42, 12.72, 12.83, 12.52, 11.61, 11.93, 11.93, 11.96, 11.96, 11.62, 11.66, 11.34, 10.68, 10.04, 9.67, 9.32, 10.99, 11.2, 11.71, 11.4, 11.4, 11.71, 9.67, 10.04, 9.3, 7.9, 3.53, 0.0, -4.48, -7.78, -6.42, -5.06, -5.06, -3.53, -3.32, -4.87, -5.49, -3.07, 0.0, 4.8, 6.17, 7.59, 8.15, 8.31, 10.99, 13.59, 14.93, 16.02, 14.99, 13.86, 13.15, 12.79, 13.56, 14.18, 13.99, 14.84, 14.13, 14.13, 14.13, 14.23, 14.75, 15.25, 15.25, 15.18, 14.42, 14.42, 13.99, 13.99, 14.1, 14.86, 15.34, 15.43, 17.2, 17.61, 16.82, 15.59, 15.59, 14.75, 14.3, 13.82, 14.64, 14.99, 15.12, 13.62, 13.01, 12.89, 9.17, 2.82, 1.84, 5.2, 8.53, 8.75, 8.73, 11.09, 12.16, 11.52, 10.43, 10.3, 11.12, 12.72, 12.86, 12.52, 11.93, 11.93, 11.93, 11.96, 12.3, 11.92, 11.97, 11.64, 10.7, 10.34, 10.01, 9.32, 10.12, 10.37, 10.8, 11.21, 10.79, 10.8, 10.4, 8.53, 7.19, 6.94, 8.22, 5.2, -2.6, -8.53, -8.85, -7.24, -5.0, -2.02, -1.76, -3.07, -3.68, -2.45, 0.0, 2.35, 4.81, 7.69, 9.88, 10.46, 12.01, 13.59, 13.15, 13.86, 13.72, 13.32, 13.75, 13.75, 14.18, 14.61, 14.31, 13.96, 14.03, 14.47, 14.47, 14.51, 14.95, 15.39, 15.18, 14.75, 14.23, 13.44, 13.57, 14.1, 14.42, 16.39, 16.84, 16.39, 17.92, 19.34, 18.8, 17.42, 17.86, 17.37, 15.65, 12.71, 13.39, 13.92, 13.65, 13.21, 12.51, 12.04, 8.53, 2.19, 0.0, 1.64, 6.4, 7.72, 9.92, 10.75, 10.63, 9.76, 9.62, 10.12, 11.6, 12.89, 12.83, 12.52, 11.93, 11.93, 12.3, 11.96, 12.3, 12.3, 11.97, 11.64, 11.01, 10.68, 10.31, 9.67, 10.86, 10.12, 10.01, 10.35, 10.35, 10.35, 9.42, 7.73, 4.58, 1.33, 0.0, 0.0, -3.04, -7.24, -7.54, -6.21, -4.81, -2.93, 0.0, 0.0, -1.45, -1.18, 0.0, 0.0, 3.68, 8.05, 9.89, 7.93, 7.51, 11.9, 13.59, 14.3, 14.3, 14.6, 14.18, 12.79, 13.75, 13.75, 13.75, 13.75, 13.75, 14.22, 14.66, 14.47, 14.47, 14.47, 14.66, 14.31, 13.37, 12.72, 14.31, 15.05, 15.95, 16.95, 17.23, 16.12, 16.24, 18.49, 20.63, 18.94, 17.26, 18.36, 18.33, 16.39, 12.89, 12.39, 12.63, 12.83, 11.71, 9.08, 6.98, 1.91, 0.0, 2.28, 4.99, 8.05, 9.44, 9.06, 8.54, 9.48, 10.3, 9.96, 10.79, 12.72, 12.96, 12.52, 11.93, 11.93, 12.62, 12.32, 12.3, 12.3, 11.97, 11.95, 11.31, 10.68, 10.34, 8.95, 10.12, 10.79, 10.47, 9.08, 9.42, 9.62, 8.85, 7.85, 7.24, 4.24, 0.0, -2.72, -4.93, -5.77, -5.77, -4.75, -5.6, -4.23, -2.71, 0.0, 0.0, 0.0, 0.0, 0.0, 1.77, 8.05, 8.22, 5.7, 3.96, 7.19, 11.9, 14.75, 15.65, 13.59, 13.97, 13.2, 12.74, 13.32, 14.16, 13.75, 13.88, 14.31, 13.96, 13.59, 13.7, 14.03, 14.11, 13.44, 13.23, 13.23, 15.15, 16.09, 16.5, 16.35, 16.12, 14.86, 14.6, 16.6, 19.37, 18.91, 16.7, 16.41, 16.96, 16.99, 15.05, 12.85, 13.01, 12.94, 11.03, 8.22, 6.4, 5.4, 2.37, 3.44, 5.46, 7.1, 8.58, 8.23, 7.11, 7.79, 8.59, 9.48, 11.5, 12.71, 12.52, 11.84, 11.64, 11.96, 12.32, 12.32, 12.3, 12.3, 11.97, 12.01, 11.34, 10.3, 9.95, 8.56, 10.12, 9.48, 10.65, 9.82, 9.62, 9.48, 9.17, 9.62, 9.62, 10.87, 9.96, 5.15, -2.72, -6.21, -5.4, -6.21, -6.45, -5.0, -3.53, 0.0, 0.0, 0.0, 0.0, 0.0, 0.0, 0.0, 5.6, 0.0, 11.18, 12.07, 12.96, 13.86, 12.27, 13.39, 13.02, 13.97, 13.19, 13.75, 12.04, 12.33, 12.98, 13.15, 13.27, 13.63, 13.63, 13.8, 13.36, 12.92, 12.52, 13.41, 15.2, 15.65, 15.53, 15.68, 15.19, 14.44, 14.1, 15.3, 17.84, 18.33, 16.09, 15.61, 15.17, 14.75, 14.3, 13.34, 12.66, 13.44, 12.39, 9.36, 7.41, 5.99, 4.49, 4.98, 5.38, 6.36, 6.21, 5.8, 5.8, 5.8, 6.9, 8.31, 12.72, 12.52, 11.71, 9.67, 11.96, 12.32, 12.32, 11.96, 12.3, 12.3, 12.33, 12.01, 11.34, 11.01, 10.01, 8.31, 9.09, 8.05, 8.73, 8.44, 8.73, 8.73, 8.3, 7.82, 10.01, 11.62, 12.3, 13.15, 11.5, 3.96, -2.39, -7.59, -7.54, -4.8, -1.64, 0.0, 0.0, 0.0, 0.0, 0.0, -4.8, -7.59, 0.0, 11.18, 12.52, 8.85, 8.85, 9.48, 11.9, 12.39, 15.61, 15.77, 13.97, 13.59, 13.56, 12.14, 12.72, 13.59, 13.79, 13.86, 13.86, 12.96, 12.47, 12.47, 12.37, 14.99, 15.2, 14.65, 13.39, 14.33, 15.83, 15.38, 14.71, 14.75, 16.09, 16.5, 16.37, 15.34, 14.64, 14.16, 13.82, 12.91, 13.63, 14.61, 14.7, 11.16, 8.58, 7.95, 5.93, 4.65, 4.81, 4.99, 5.18, 5.27, 5.11, 4.1, 3.14, 0.0, 13.41, 11.87, 9.67, 6.7, 12.01, 12.32, 12.32, 12.3, 12.3, 12.3, 12.33, 11.66, 11.38, 11.03, 10.35, 9.66, 8.74, 7.34, 8.2, 7.44, 7.69, 6.2, 5.46, 4.55, 4.39, 5.6, 8.44, 10.18, 8.59, 5.4, 0.0, -11.03, -9.48, -4.48, -3.04, 0.0, 0.0, 0.0, 0.0, 0.0, 10.73, 8.94, 11.62, 12.52, 11.71, 11.2, 10.04, 11.03, 11.28, 12.96, 13.41, 14.03, 13.99, 13.58, 13.19, 13.99, 13.96, 13.77, 13.86, 14.3, 13.79, 12.71, 11.99, 12.08, 14.13, 16.54, 16.19, 11.38, 12.03, 14.28, 15.7, 15.02, 13.63, 14.3, 14.75, 15.59, 16.04, 15.91, 15.46, 13.5, 12.72, 10.92, 11.54, 13.82, 15.3, 15.84, 11.7, 9.61, 6.2, 3.94, 4.08, 4.38, 4.98, 3.56, 2.54, 0.0, 0.0, 0.0, -0.0, 3.96, 5.6, 5.6, 12.01, 12.01, 12.64, 12.64, 12.3, 12.3, 12.33, 11.7, 11.36, 11.38, 10.72, 10.42, 10.06, 9.09, 9.77, 8.2, 8.18, 7.1, 7.59, 6.9, 6.16, 5.26, 4.66, 5.25, 4.81, 1.76, -2.49, -9.83, -9.97, -8.85, -6.7, -6.95, -9.83, -9.83, -6.95, 0.0, 8.22, 11.62, 11.62, 12.14, 11.6, 10.41, 11.03, 11.71, 11.62, 11.62, 11.71, 11.2, 10.37, 11.5, 13.56, 15.07, 15.07, 14.79, 15.27, 15.69, 15.69, 13.86, 10.6, 12.72, 16.91, 11.17, 8.03, 8.28, 9.47, 11.96, 12.17, 11.96, 11.44, 11.26, 12.98, 14.4, 16.01, 16.01, 14.99, 13.07, 10.73, 9.58, 12.27, 13.59, 14.19, 14.3, 13.39, 8.43, 2.28, 0.0, 1.68, 1.68, 2.02, 0.0, -3.04, -3.04, -8.85, -12.52, -5.4, -0.0, 2.54, 4.81, 12.01, 12.33, 12.64, 12.64, 12.3, 12.64, 12.33, 11.7, 11.36, 11.36, 11.38, 10.72, 10.72, 10.72, 11.11, 10.84, 9.59, 8.85, 9.48, 9.8, 10.48, 10.81, 9.7, 9.39, 7.44, 6.44, 6.7, 8.49, 10.73, -10.73, -7.9, 10.73, -0.0, -7.27, 10.28, 10.73, 10.73, 10.4, 8.22, 10.04, 11.2, 10.04, 10.4, 11.28, 10.73, 10.28, 10.8, 8.85, 9.17, 11.53, 12.27, 11.7, 12.02, 9.98, 9.54, 9.54, 9.0, 11.73, 12.07, -0.0, -0.0, 4.45, 6.26, 5.78, 5.78, 7.57, 10.0, 9.64, 10.14, 9.12, 9.34, 10.82, 13.7, 15.2, 12.3, 10.92, 10.2, 11.64, 12.11, 12.52, 13.39, 13.39, 14.13, 10.73, 8.4, 0.0, 0.0, 0.0, 0.0, -3.36, -3.04, -4.32, -11.28, -9.97, -6.44, -0.0, 2.13, 2.54, 11.66, 12.33, 12.33, 12.64, 12.64, 12.64, 12.33, 12.01, 11.7, 11.38, 11.05, 11.06, 11.06, 11.38, 12.07, 12.5, 12.3, 12.13, 11.39, 11.53, 12.33, 13.33, 14.35, 14.21, 14.09, 13.83, 13.41, 12.94, 11.93, 9.77, 11.18, 11.18, 9.6, 9.2, 9.2, 7.27, 7.27, 7.9, 7.9, 9.3, 9.67, 10.4, 10.0, 9.54, 10.28, 10.73, 8.22, 5.4, 9.17, 9.48, 7.51, 6.9, 6.4, 4.18, 3.33, 6.81, 6.36, 14.24, 15.61, -3.82, -1.46, 2.52, 5.13, 4.73, 4.12, 5.53, 7.44, 8.79, 8.27, 11.2, 12.72, 14.86, 11.9, 11.62, 8.8, 9.97, 12.09, 12.7, 11.38, 11.7, 12.87, 12.92, 13.1, 15.9, 16.48, 15.02, 18.66, 8.0, 0.0, 0.0, -2.72, -5.98, -11.18, -9.97, -6.44, -2.13, -0.0, 2.2, 11.99, 12.33, 12.64, 12.64, 12.98, 12.98, 12.66, 12.01, 12.01, 11.7, 11.38, 11.06, 11.06, 11.38, 12.04, 13.07, 13.53, 13.59, 13.26, 13.14, 12.97, 13.59, 14.28, 14.54, 15.41, 15.14, 15.2, 14.74, 13.84, 12.94, 10.73, 10.73, 11.18, 9.83, 9.33, 9.33, 6.95, 5.7, 7.27, 8.93, 10.18, 10.28, 10.73, 10.28, 9.83, 7.27, -0.0, -0.0, 5.2, 5.6, 5.6, 5.4, 5.4, -0.0, -0.0, -0.0, -0.0, 18.65, 21.46, 4.38, -2.72, -0.0, 5.81, 4.12, 4.35, 4.35, 5.13, 5.94, 6.79, 12.24, 15.0, 15.8, 13.79, 9.55, 10.84, 12.27, 14.79, 13.95, 13.59, 15.19, 15.19, 16.31, 15.53, 15.2, 15.49, 15.2, 17.19, 18.33, 5.51, 0.0, 0.0, -6.71, -11.18, -8.85, -6.94, -3.56, -0.0, 1.83, 11.99, 11.99, 12.64, 12.64, 12.98, 13.31, 12.98, 12.66, 12.01, 11.7, 11.38, 11.37, 11.38, 11.72, 12.04, 13.07, 13.07, 13.46, 14.13, 14.13, 14.31, 14.53, 14.48, 14.78, 15.18, 15.43, 15.15, 14.75, 14.29, 13.84, 12.5, 10.28, 11.18, 10.28, 10.28, 9.75, 7.59, 5.46, 9.3, 9.33, 10.28, 10.73, 9.54, 9.54, 9.83, 4.4, -0.0, -0.0, -0.0, 7.9, 8.22, 7.9, -0.0, -0.0, 9.83, 0.0, 0.0, 11.88, 18.33, 12.33, -0.0, 2.13, 5.15, 7.36, 6.6, 4.81, 5.23, 5.37, 8.28, 12.57, 14.54, 16.15, 17.11, 5.6, -0.0, 5.23, 9.67, 10.73, 13.59, 15.77, 16.54, 16.86, 15.65, 13.41, 12.96, 15.2, 15.2, 16.09, 14.39, 3.24, 0.0, -2.63, -11.62, -3.44, -2.91, -0.0, 1.83, 1.83, 11.99, 11.99, 12.3, 12.64, 12.98, 13.31, 12.98, 12.98, 12.33, 11.7, 11.38, 11.7, 11.7, 12.04, 12.37, 12.74, 13.39, 13.39, 14.4, 14.62, 15.14, 15.34, 15.31, 15.4, 15.14, 15.43, 15.15, 15.19, 15.2, 14.75, 14.3, 12.96, 10.26, 10.65, 10.28, 8.48, 5.7, 6.17, 8.93, 9.97, 9.39, 9.39, 10.28, 9.83, 9.83, 4.2, -0.0, -0.0, 4.6, 4.6, 10.0, 10.4, 10.4, 10.73, 9.39, 0.0, 4.6, 9.67, 14.75, 11.06, 6.4, 7.26, 8.22, 9.66, 8.53, 5.8, 2.13, 3.69, 9.66, 11.8, 16.76, 18.59, 18.78, -0.0, -0.0, 6.81, 8.6, 11.53, 12.96, 13.92, 14.66, 16.75, 16.66, 14.68, 12.07, 10.84, 13.01, 12.58, 12.46, 9.8, 5.81, 12.96, 1.43, -0.0, -0.0, -0.0, 2.72, 2.72, 11.99, 11.99, 12.3, 12.64, 12.98, 13.31, 13.31, 12.98, 12.66, 12.33, 11.7, 11.7, 12.02, 12.04, 12.37, 13.05, 13.05, 13.68, 14.28, 14.62, 15.14, 15.46, 15.82, 15.82, 15.75, 15.89, 15.98, 16.04, 16.08, 16.08, 15.63, 14.74, 12.82, 11.78, 8.67, 8.91, 6.95, 9.6, 9.75, 9.83, 9.54, 8.94, 10.28, 8.94, 9.83, 4.4, -0.0, -0.0, 3.25, 5.7, 8.55, 8.93, 9.3, 8.93, 10.18, 10.28, 10.28, 10.73, 10.8, 9.96, 9.62, 8.73, 9.2, 9.6, 7.59, -0.0, -0.0, 3.68, 9.8, 16.91, 21.9, 14.91, 9.92, 21.01, 8.0, 7.4, 9.89, 12.46, 13.91, 13.28, 13.36, 14.51, 16.12, 14.9, 14.3, 11.46, 10.8, 11.92, 12.33, 11.53, 13.56, 11.99, 3.6, 1.97, 2.32, 3.47, 5.08, 5.08, 11.99, 11.99, 12.3, 12.3, 12.64, 13.31, 13.31, 12.98, 12.99, 12.66, 12.33, 11.7, 12.02, 12.04, 12.37, 12.71, 13.68, 13.68, 13.68, 13.87, 14.79, 15.32, 15.4, 15.4, 15.75, 15.89, 16.35, 15.91, 15.99, 15.91, 15.46, 15.01, 14.07, 11.35, 10.41, 10.28, 9.83, 10.28, 9.83, 9.33, 9.33, 9.83, 9.83, 10.28, 10.28, 7.27, 3.39, 3.25, 5.7, 7.27, 8.55, 9.2, 8.23, 8.23, 8.23, 8.23, 9.55, 9.2, 8.73, 9.3, 10.04, 10.4, 9.6, 9.96, 7.59, -0.0, -0.0, 4.6, 12.07, 15.34, 19.34, 17.97, 19.08, 21.46, 15.59, 10.87, 11.77, 14.53, 16.75, 15.84, 14.78, 16.74, 17.46, 13.41, 12.52, 12.52, 12.96, 12.46, 13.31, 14.3, 13.88, 9.76, 5.98, 2.93, 3.73, 5.27, 6.44, 6.44, 11.99, 11.99, 11.99, 11.99, 12.64, 12.98, 13.31, 12.98, 13.33, 12.99, 12.33, 12.33, 12.02, 12.7, 12.04, 14.33, 12.4, 13.06, 13.05, 14.1, 14.79, 15.59, 14.66, 15.56, 14.84, 15.61, 12.46, 14.51, 14.93, 13.37, 13.84, 13.98, 13.17, 11.92, 10.96, 10.41, 9.92, 9.96, 10.27, 9.6, 9.13, 10.08, 11.18, 11.18, 11.28, 8.93, 7.59, 5.7, 7.27, 7.27, 9.2, 9.2, 8.23, 7.27, 7.27, 7.27, 8.03, 8.73, 9.42, 9.67, 10.4, 10.4, 10.6, 9.33, 3.65, -0.0, 1.33, 3.82, 9.96, 14.3, 17.88, 20.12, 23.13, 24.34, 17.89, 16.35, 16.09, 16.54, 16.99, 17.37, 16.99, 17.33, 15.99, 12.14, 13.41, 13.41, 12.72, 12.14, 13.28, 12.56, 12.13, 10.59, 7.24, 4.32, 5.63, 6.95, 8.05, 8.05, 11.99, 11.99, 11.99, 11.99, 12.98, 12.98, 12.98, 12.98, 13.33, 12.99, 12.66, 12.33, 12.36, 12.7, 12.7, 12.71, 12.77, 11.77, 13.59, 13.6, 15.2, 14.51, 14.04, 14.51, 13.54, 14.18, 13.7, 12.36, 12.87, 12.3, 12.14, 12.27, 11.92, 12.0, 11.42, 10.32, 10.25, 10.25, 10.45, 10.02, 10.6, 10.7, 11.18, 11.18, 11.05, 11.03, 9.2, 9.2, 9.2, 8.8, 8.8, 9.2, 7.59, 6.71, 6.14, 6.95, 8.73, 8.24, 8.24, 10.4, 10.38, 9.96, 9.96, 7.59, 1.45, 1.28, 1.28, 4.4, 9.27, 12.25, 16.12, 19.4, 23.78, 26.2, 21.01, 16.9, 14.79, 12.87, 15.44, 16.48, 15.39, 16.27, 14.95, 13.33, 13.86, 13.28, 11.64, 10.37, 11.85, 11.44, 12.33, 10.91, 8.44, 7.54, 7.34, 9.73, 9.44, 9.44, 11.99, 11.99, 11.99, 11.99, 12.66, 12.66, 12.98, 12.98, 13.33, 13.33, 12.66, 12.65, 12.65, 12.99, 12.99, 12.99, 12.71, 12.08, 11.39, 12.97, 14.06, 12.82, 12.87, 13.18, 13.68, 14.39, 13.56, 12.95, 12.3, 11.71, 11.37, 11.48, 11.55, 11.54, 11.52, 10.89, 10.68, 10.25, 10.25, 10.93, 11.08, 11.15, 11.18, 12.07, 11.6, 11.98, 9.7, 9.55, 9.2, 9.97, 9.54, 8.55, 6.44, 6.71, 6.44, 6.17, 7.9, 7.9, 9.08, 10.38, 10.0, 10.0, 5.95, 2.19, -0.0, 1.33, 1.52, 4.75, 7.78, 10.43, 12.65, 16.17, 21.81, 24.93, 19.49, 16.46, 12.2, 11.05, 11.7, 12.82, 14.84, 15.46, 14.71, 13.41, 13.79, 12.89, 11.64, 11.37, 12.38, 11.34, 12.35, 10.73, 10.12, 9.48, 9.8, 10.43, 9.22, 9.22, 11.68, 11.99, 11.99, 12.33, 12.66, 12.66, 12.66, 12.98, 13.33, 12.99, 12.66, 12.65, 12.65, 12.99, 12.99, 12.99, 13.05, 12.36, 12.31, 13.16, 13.39, 12.74, 12.47, 12.85, 13.97, 14.92, 15.07, 14.36, 13.41, 12.64, 11.86, 11.49, 11.48, 11.55, 11.53, 10.93, 11.33, 11.03, 10.68, 10.89, 10.93, 11.08, 11.08, 12.05, 11.18, 10.73, 10.73, 9.64, 10.08, 10.28, 9.97, 8.93, 4.8, 5.0, 6.44, 6.71, 6.45, 7.28, 8.22, 7.59, 7.27, 4.8, -0.0, -0.0, 1.39, 1.39, 3.19, 4.75, 4.55, 6.6, 7.76, 11.16, 19.28, 23.73, 7.4, 7.82, 9.19, 10.2, 10.31, 10.47, 13.02, 15.9, 16.05, 15.2, 14.26, 13.15, 13.01, 13.88, 14.7, 11.76, 11.78, 10.47, 10.12, 11.29, 11.64, 10.12, 8.85, 8.85, 11.68, 11.68, 11.68, 12.66, 12.66, 12.66, 12.66, 12.99, 12.99, 12.99, 12.66, 12.65, 12.65, 12.65, 12.99, 13.33, 13.33, 12.98, 13.16, 13.74, 13.95, 13.97, 12.77, 12.38, 12.93, 13.99, 14.76, 15.27, 14.59, 13.84, 13.1, 12.64, 11.86, 11.48, 11.46, 11.42, 11.4, 11.36, 11.33, 11.33, 11.33, 11.36, 11.51, 11.51, 11.59, 11.18, 10.73, 9.39, 9.39, 10.28, 9.97, 7.59, 4.8, 5.0, 4.8, 4.8, 4.15, 5.11, 5.8, 5.21, 2.28, -0.0, -0.0, 1.64, 1.39, 2.71, 2.82, 3.07, 3.19, 4.93, 2.72, 8.0, 26.32, 13.86, 8.05, -4.2, 1.43, 5.46, 8.33, 8.99, 9.02, 13.02, 14.44, 15.43, 14.7, 13.86, 13.86, 14.3, 15.2, 14.9, 12.3, 10.73, 11.29, 11.72, 12.13, 12.27, 6.4, 6.4, 11.68, 11.68, 11.68, 12.33, 12.66, 12.66, 12.99, 12.99, 12.99, 12.99, 12.66, 12.65, 12.65, 12.65, 13.26, 13.59, 13.59, 13.23, 13.16, 14.04, 14.33, 14.06, 13.86, 13.32, 12.67, 13.32, 13.84, 14.57, 14.84, 14.42, 13.69, 13.41, 12.64, 12.3, 11.4, 11.02, 11.01, 10.98, 11.4, 11.36, 11.36, 11.33, 11.49, 11.49, 11.49, 11.14, 12.52, 11.18, 10.73, 11.18, 11.62, 9.3, 5.95, 5.95, 4.6, 4.6, 2.49, -0.0, 2.54, 5.98, 4.0, -0.0, -0.0, 1.64, 1.58, 3.32, 4.75, 6.44, 5.0, 4.15, 7.9, 19.95, 25.93, 27.14, 15.06, 11.64, 13.15, 10.37, 8.57, 8.22, 7.85, 9.7, 11.69, 12.42, 13.62, 14.13, 14.47, 14.4, 15.2, 11.38, 10.94, 9.97, 11.09, 11.97, 12.79, 12.27, 6.2, 6.2, 11.68, 11.68, 12.01, 12.33, 12.33, 12.33, 12.99, 12.99, 12.99, 12.99, 12.99, 12.65, 12.65, 12.92, 12.92, 13.59, 13.23, 13.46, 13.67, 13.67, 14.13, 14.44, 14.36, 14.13, 13.59, 13.19, 13.43, 13.65, 14.15, 13.93, 14.11, 13.69, 12.94, 12.51, 12.18, 11.4, 10.94, 10.91, 10.88, 11.42, 11.4, 11.52, 11.06, 11.05, 11.02, 10.58, 11.44, 10.68, 9.79, 9.83, 10.73, 12.14, 7.59, 3.39, 3.25, 3.25, -0.0, -0.0, -0.0, 5.6, 7.9, 4.83, 2.39, -0.0, 1.64, 3.32, 5.4, 5.99, 6.7, 10.4, 13.41, 15.57, 21.83, 26.16, 25.65, 18.22, 16.14, 15.18, 14.19, 7.44, 6.52, 8.2, 9.13, 10.55, 12.45, 13.48, 13.81, 14.55, 12.16, 6.35, 9.12, 10.43, 11.25, 12.56, 11.58, 11.53, 8.31, 8.31, 11.38, 11.38, 11.7, 12.33, 12.33, 12.33, 12.66, 12.66, 12.99, 13.61, 13.26, 12.99, 12.92, 12.92, 12.92, 13.23, 13.23, 13.46, 13.67, 13.67, 14.13, 14.44, 14.44, 14.52, 13.74, 13.59, 13.43, 13.24, 13.24, 13.44, 13.44, 13.21, 12.78, 12.89, 12.04, 11.71, 11.28, 10.81, 10.91, 10.91, 11.01, 11.42, 11.08, 11.06, 10.6, 10.58, 11.44, 10.24, 9.79, 9.79, 11.18, 11.18, 11.87, 3.82, 3.53, 3.39, -0.0, -0.0, -0.0, -0.0, 8.53, 7.24, 2.97, 1.39, 3.07, 3.82, 6.44, 5.6, 9.17, 10.73, 11.95, 14.3, 16.94, 23.26, 24.64, 22.62, 18.86, 16.71, 12.93, 8.93, 6.0, 7.13, 9.49, 9.8, 11.57, 14.3, 13.89, 14.75, 9.22, 6.17, 10.19, 12.15, 12.52, 13.64, 12.03, 12.27, 11.28, 11.28, 11.38, 11.38, 12.01, 12.33, 12.33, 12.33, 12.66, 12.66, 12.66, 13.26, 13.26, 13.26, 12.92, 12.92, 13.23, 13.23, 13.46, 13.46, 13.67, 13.76, 13.76, 14.06, 14.06, 14.24, 14.13, 14.11, 13.71, 13.43, 13.24, 13.02, 12.6, 12.78, 12.3, 12.3, 11.99, 11.99, 11.99, 11.51, 11.67, 11.24, 10.77, 11.35, 11.31, 10.54, 10.19, 11.06, 11.05, 10.12, 9.68, 9.64, 10.47, 11.09, 10.28, 5.7, -0.0, -0.0, -0.0, -0.0, -2.97, -0.0, 6.7, 6.2, 4.15, 2.95, 4.65, 5.2, 6.21, 10.12, 10.12, 11.92, 12.86, 13.41, 14.75, 16.82, 18.68, 23.77, 23.07, 19.08, 12.83, 9.64, 3.19, 4.65, 7.36, 7.9, 9.8, 11.42, 13.99, 13.99, 8.43, 8.57, 10.75, 13.06, 14.67, 14.42, 12.89, 12.27, 12.18, 12.18, 11.38, 11.38, 12.01, 12.33, 12.33, 12.33, 12.66, 12.66, 12.66, 13.26, 13.26, 13.26, 13.26, 13.59, 13.59, 13.23, 13.46, 13.46, 13.46, 13.76, 13.76, 14.06, 14.06, 13.85, 14.13, 13.87, 13.71, 13.71, 13.53, 13.32, 13.02, 13.02, 12.78, 12.3, 11.87, 11.99, 11.99, 11.94, 11.51, 11.67, 11.24, 11.2, 10.91, 10.01, 9.67, 10.54, 10.08, 10.16, 9.7, 9.92, 10.6, 10.41, 10.58, 9.75, 3.39, -0.0, -0.0, -0.0, -0.0, -0.0, 2.19, 3.53, 3.07, 3.32, 5.2, 6.44, 9.48, 11.2, 12.07, 12.96, 14.19, 14.3, 13.41, 13.8, 15.2, 19.67, 23.66, 19.22, 13.86, 10.28, 8.94, 2.52, 4.24, 6.31, 7.93, 9.8, 13.99, 12.52, 11.06, 12.0, 11.33, 12.73, 14.56, 15.01, 14.46, 13.49, 13.25, 13.25, 12.01, 12.01, 12.01, 12.01, 12.33, 12.66, 12.66, 12.66, 12.66, 13.26, 13.26, 13.26, 13.59, 13.59, 13.59, 13.46, 13.46, 13.46, 13.46, 13.76, 13.76, 13.39, 13.85, 13.85, 13.74, 13.74, 13.59, 13.59, 13.43, 13.65, 13.24, 13.02, 13.02, 12.78, 12.3, 11.81, 11.99, 11.94, 11.51, 11.51, 11.03, 11.2, 10.72, 11.71, 11.88, 10.18, 9.21, 9.5, 9.93, 9.75, 10.38, 10.18, 9.89, 10.28, 7.59, -0.0, -0.0, -0.0, -3.39, -0.0, -0.0, 1.84, 1.71, 4.65, 4.48, 6.43, 8.05, 8.85, 11.62, 11.03, 13.67, 14.13, 13.63, 13.36, 12.99, 16.39, 19.82, 18.65, 18.78, 16.84, 12.47, 10.04, 8.85, 7.85, 10.12, 12.89, 13.23, 13.7, 14.42, 13.59, 12.27, 13.2, 13.74, 14.39, 15.19, 15.19, 14.79, 14.79, 12.01, 12.01, 12.01, 12.01, 12.33, 12.66, 12.66, 12.66, 12.66, 13.26, 13.26, 13.59, 13.59, 13.59, 13.82, 13.46, 13.46, 13.46, 13.76, 13.39, 13.39, 13.39, 13.2, 13.47, 13.47, 13.34, 13.34, 13.59, 13.43, 13.43, 13.24, 13.24, 13.02, 12.6, 12.11, 11.87, 11.81, 11.99, 11.51, 11.51, 11.51, 11.03, 11.03, 10.29, 10.6, 11.4, 10.96, 9.89, 9.68, 10.43, 10.43, 9.36, 9.63, 9.89, 10.73, -0.0, -0.0, -3.53, -5.2, -2.71, -0.0, -0.0, 2.37, 2.82, 3.82, 3.04, 4.98, 6.4, 5.0, 6.95, 8.93, 10.73, 14.39, 16.54, 16.41, 16.96, 17.14, 15.8, 18.2, 20.12, 20.91, 14.74, 12.96, 12.49, 11.62, 14.25, 13.67, 14.11, 14.69, 13.99, 13.19, 14.3, 14.44, 14.38, 14.88, 16.25, 16.25, 16.25, 12.01, 12.01, 12.01, 12.01, 12.01, 12.66, 12.66, 12.66, 12.65, 12.92, 13.26, 13.26, 13.59, 13.82, 13.82, 13.46, 13.1, 13.46, 13.76, 13.76, 13.39, 13.02, 13.2, 13.47, 13.09, 13.2, 12.81, 13.07, 13.02, 13.43, 13.43, 13.24, 13.24, 12.83, 12.53, 12.11, 11.81, 11.81, 11.75, 11.51, 11.51, 11.45, 11.03, 10.54, 10.05, 11.34, 11.21, 10.01, 9.6, 10.32, 9.6, 9.03, 8.82, 10.05, 10.58, 10.73, -0.0, -0.0, -3.39, -5.0, -2.71, -0.0, -0.0, 2.28, 2.37, -0.0, 1.44, 4.1, 6.7, 7.27, 4.83, 7.27, 13.02, 20.6, 20.49, 17.78, 14.36, 12.27, 15.02, 19.25, 21.89, 19.22, 15.6, 14.19, 13.65, 14.07, 14.07, 14.09, 13.99, 14.31, 14.23, 14.23, 14.75, 15.12, 15.01, 15.51, 16.37, 16.37, 11.68, 11.68, 12.01, 12.01, 12.33, 12.33, 12.33, 12.33, 12.65, 12.92, 12.92, 13.26, 13.59, 13.82, 13.82, 13.46, 13.1, 13.39, 13.76, 13.39, 13.02, 13.02, 13.3, 12.92, 12.92, 13.2, 12.81, 12.53, 14.18, 12.64, 13.02, 13.02, 13.24, 12.83, 12.74, 12.53, 12.11, 12.24, 11.81, 11.75, 11.33, 11.51, 11.03, 11.03, 10.33, 10.33, 10.46, 10.18, 10.01, 10.43, 9.9, 9.2, 9.42, 8.93, 8.37, 10.28, 11.18, 7.9, 4.8, -0.0, -0.0, -0.0, 1.91, -0.0, -0.0, -0.0, -0.0, 2.82, 8.85, 9.42, 7.27, 8.24, 11.53, 17.09, 27.89, 19.97, 14.03, 8.82, 10.43, 16.6, 18.16, 17.88, 16.93, 15.46, 15.38, 15.82, 15.36, 14.31, 13.88, 13.32, 13.5, 14.11, 14.55, 15.05, 14.79, 15.27, 15.71, 15.71, 11.68, 11.68, 11.68, 12.01, 12.33, 12.33, 12.33, 12.33, 12.65, 12.92, 12.92, 12.92, 13.59, 13.82, 13.82, 13.46, 13.46, 13.39, 13.39, 13.39, 13.02, 13.02, 12.92, 12.92, 12.92, 12.81, 12.81, 12.42, 12.14, 13.77, 12.12, 12.64, 12.74, 12.74, 12.74, 12.74, 12.53, 12.45, 12.04, 11.81, 11.75, 11.75, 11.33, 10.83, 10.42, 10.42, 10.42, 10.12, 9.96, 10.1, 9.68, 9.6, 10.0, 9.2, 8.23, 9.6, 10.52, 10.73, 10.28, 10.18, 5.95, -0.0, -0.0, -0.0, -0.0, 2.19, 2.6, 5.29, 8.22, 11.12, 9.16, 9.09, 11.35, 16.05, 27.93, 23.32, 18.03, 14.75, 13.15, 13.7, 15.98, 16.99, 17.87, 17.82, 16.9, 16.45, 15.82, 14.75, 13.88, 13.01, 12.75, 13.36, 13.86, 14.3, 14.3, 15.08, 15.09, 15.09, 11.68, 11.68, 11.68, 11.68, 12.33, 12.33, 12.33, 12.33, 12.65, 12.92, 12.92, 12.92, 13.46, 13.82, 13.46, 13.46, 13.39, 13.39, 13.39, 13.02, 13.02, 12.92, 12.92, 12.92, 12.54, 12.81, 12.42, 12.42, 12.81, 12.67, 11.99, 12.23, 12.23, 12.74, 12.74, 12.74, 12.64, 12.87, 12.45, 12.04, 12.04, 11.75, 11.75, 11.33, 10.83, 10.42, 10.42, 10.12, 10.05, 10.05, 9.96, 10.6, 10.1, 9.34, 9.36, 9.4, 9.97, 9.74, 10.28, 10.73, 8.85, 2.71, -0.0, -0.0, 1.45, 2.1, 3.98, 4.8, 6.97, 8.85, 8.85, 9.77, 12.04, 15.2, 23.69, 25.74, 20.51, 18.32, 17.02, 17.43, 16.87, 16.8, 16.92, 16.97, 16.54, 16.04, 15.96, 14.93, 14.18, 13.36, 12.52, 12.52, 12.52, 13.37, 13.38, 14.75, 15.2, 15.2, 11.68, 11.68, 11.68, 11.68, 11.99, 12.33, 12.33, 12.33, 12.65, 12.92, 12.92, 12.92, 13.46, 13.82, 13.46, 13.76, 13.39, 13.39, 13.39, 13.39, 13.02, 12.92, 12.92, 12.92, 12.54, 12.81, 12.42, 12.42, 12.42, 12.79, 12.92, 12.51, 12.23, 12.23, 12.23, 12.64, 12.64, 12.64, 12.23, 12.45, 12.45, 12.04, 11.75, 11.33, 11.33, 10.91, 10.42, 10.42, 10.33, 9.83, 10.05, 10.46, 10.24, 9.75, 10.1, 9.83, 9.54, 9.68, 9.83, 10.18, 8.43, 5.2, 2.1, 1.84, 1.84, 2.19, 3.98, 5.0, 6.2, 7.85, 8.85, 10.65, 13.39, 15.51, 19.67, 21.35, 19.6, 17.9, 18.84, 18.82, 17.43, 16.92, 15.47, 15.12, 15.65, 14.73, 14.65, 14.7, 13.41, 12.52, 12.52, 12.52, 12.52, 12.48, 12.93, 12.93, 14.75, 14.75, 11.36, 11.36, 11.68, 11.68, 11.99, 11.99, 12.33, 12.33, 12.65, 12.92, 12.92, 12.92, 13.46, 13.46, 13.46, 13.76, 13.39, 13.39, 13.39, 13.39, 13.3, 12.92, 12.92, 12.54, 12.54, 12.81, 12.42, 12.42, 12.42, 12.67, 12.67, 12.92, 12.51, 12.11, 12.23, 12.23, 12.23, 12.23, 12.23, 12.23, 12.45, 11.95, 11.95, 11.75, 11.33, 11.33, 10.91, 10.83, 10.42, 10.33, 9.83, 10.05, 10.05, 10.29, 9.81, 9.54, 9.64, 9.74, 9.81, 10.22, 9.45, 4.96, 4.8, 1.45, 2.82, 4.15, 3.82, 3.39, 5.0, 6.5, 9.17, 9.76, 13.68, 15.91, 18.96, 17.4, 17.14, 19.02, 20.76, 20.68, 20.0, 16.52, 14.3, 12.96, 13.38, 12.92, 12.91, 12.52, 12.52, 12.79, 12.79, 12.79, 12.86, 12.96, 12.52, 12.96, 13.86, 13.86, 11.06, 11.06, 11.68, 11.68, 11.99, 11.99, 12.33, 12.33, 12.65, 12.92, 12.92, 12.92, 13.46, 13.46, 13.46, 13.76, 13.39, 13.39, 13.39, 13.39, 13.3, 12.92, 12.92, 12.54, 12.54, 12.81, 12.42, 12.42, 12.42, 12.67, 12.67, 12.67, 12.92, 12.51, 12.51, 12.23, 12.23, 12.23, 12.12, 12.12, 12.12, 11.95, 11.54, 12.21, 10.42, 11.33, 11.33, 10.91, 10.83, 10.33, 10.33, 9.92, 10.12, 10.12, 9.43, 9.43, 9.54, 9.32, 9.83, 9.83, 9.6, 7.64, 4.6, 3.11, 2.95, 4.15, 3.11, 2.82, 4.8, 5.32, 7.56, 9.17, 11.88, 16.79, 19.71, 17.74, 13.86, 16.95, 22.33, 22.35, 19.66, 17.3, 14.93, 12.79, 11.84, 12.68, 13.28, 12.91, 12.83, 12.3, 12.3, 11.99, 13.01, 13.19, 12.81, 12.85, 13.38, 13.41, 11.06, 11.06, 11.06, 11.99, 11.99, 11.99, 11.99, 12.31, 12.65, 12.92, 12.92, 12.57, 13.1, 13.1, 13.46, 13.39, 13.39, 13.39, 13.39, 13.68, 13.3, 13.3, 12.92, 12.54, 12.54, 12.42, 12.42, 12.42, 12.42, 12.42, 12.67, 12.67, 12.67, 12.92, 12.51, 12.39, 12.23, 12.23, 12.23, 12.12, 12.12, 11.72, 11.2, 12.1, 10.54, 11.25, 11.12, 11.12, 10.62, 10.42, 10.33, 9.92, 9.92, 9.7, 9.43, 9.39, 9.11, 9.32, 9.39, 9.83, 9.68, 8.58, 8.58, 4.2, 3.11, 2.1, 1.76, 4.05, 4.23, 5.54, 5.54, 8.1, 11.33, 14.95, 21.38, 20.79, 14.62, 14.86, 18.46, 19.62, 16.91, 15.2, 15.12, 14.55, 13.49, 13.05, 13.65, 13.55, 12.94, 12.72, 12.72, 13.09, 13.15, 13.28, 13.38, 12.94, 13.41, 13.38, 11.06, 11.06, 11.06, 11.66, 11.99, 11.99, 11.99, 12.31, 12.31, 12.57, 12.57, 12.57, 13.23, 13.46, 13.46, 13.76, 13.76, 13.39, 13.39, 13.3, 13.3, 12.92, 12.92, 12.54, 12.54, 12.42, 12.42, 12.42, 12.42, 12.42, 12.67, 12.67, 12.67, 12.67, 12.92, 12.92, 12.39, 11.99, 12.23, 12.12, 12.12, 11.72, 11.6, 10.67, 11.77, 10.83, 11.12, 10.8, 10.62, 10.21, 10.33, 9.92, 9.92, 9.7, 9.39, 9.39, 9.11, 8.92, 9.39, 9.39, 9.7, 9.06, 7.12, 6.95, 4.6, 2.02, 2.7, 4.6, 4.23, 5.54, 5.54, 7.44, 10.82, 12.73, 15.74, 21.46, 20.96, 15.51, 14.27, 12.62, 12.25, 12.72, 13.41, 13.29, 13.62, 14.09, 14.11, 14.5, 13.94, 13.67, 13.8, 13.79, 13.86, 13.86, 13.41, 13.41, 12.96, 13.41, 11.06, 11.06, 11.37, 11.37, 11.37, 11.66, 12.31, 12.31, 12.31, 12.31, 12.57, 12.92, 13.23, 13.23, 13.23, 13.76, 13.76, 13.39, 13.68, 13.3, 12.92, 12.92, 12.54, 12.54, 12.81, 12.42, 12.42, 12.42, 12.27, 12.27, 12.42, 12.28, 12.67, 12.67, 12.67, 12.92, 12.51, 12.39, 12.39, 12.64, 12.12, 11.72, 11.6, 10.94, 11.2, 11.99, 10.52, 10.11, 9.71, 9.71, 9.71, 9.51, 9.51, 9.63, 9.39, 8.96, 9.11, 8.86, 8.94, 9.39, 9.36, 9.24, 10.52, 8.18, 4.4, 2.02, 3.11, 3.98, 3.25, 5.54, 6.76, 7.44, 9.17, 10.82, 11.88, 15.22, 24.18, 23.55, 15.99, 12.79, 14.55, 14.75, 14.99, 15.82, 15.9, 15.12, 14.72, 14.71, 14.71, 14.3, 14.3, 14.3, 13.8, 13.74, 13.31, 12.87, 12.86, 12.86, 11.37, 11.37, 11.37, 11.37, 11.37, 11.37, 12.31, 12.31, 12.31, 12.31, 12.92, 13.23, 13.23, 13.23, 13.23, 13.55, 13.76, 13.39, 13.39, 13.3, 12.92, 12.92, 12.54, 12.54, 12.81, 12.81, 12.42, 12.27, 12.27, 12.27, 12.27, 12.67, 12.67, 12.67, 12.28, 12.67, 12.67, 12.79, 12.79, 12.39, 12.26, 12.12, 11.72, 11.47, 11.47, 11.72, 11.03, 9.71, 9.2, 9.2, 9.42, 9.01, 9.01, 9.21, 8.96, 8.96, 8.77, 8.42, 8.92, 8.94, 9.39, 8.94, 8.44, 8.8, 4.4, 1.93, 3.82, 3.82, 3.25, 5.0, 7.44, 7.9, 10.37, 10.19, 12.27, 13.65, 19.15, 27.91, 24.57, 18.1, 15.74, 15.12, 16.39, 17.22, 16.82, 16.19, 14.62, 14.3, 14.75, 14.23, 14.03, 14.03, 13.27, 13.01, 12.74, 12.71, 12.71, 12.71, 11.05, 11.05, 11.37, 11.37, 11.37, 11.69, 12.03, 12.31, 12.31, 12.31, 12.92, 13.23, 13.23, 13.23, 13.23, 13.55, 13.39, 13.39, 13.39, 12.92, 12.92, 12.54, 12.54, 12.54, 12.81, 12.81, 12.42, 12.27, 12.27, 12.27, 12.27, 12.53, 12.53, 12.53, 12.28, 12.67, 12.53, 12.53, 12.79, 12.79, 12.39, 11.87, 11.87, 11.47, 11.47, 11.72, 11.54, 10.62, 9.92, 9.42, 9.01, 9.01, 8.72, 8.72, 8.91, 8.48, 8.21, 7.87, 8.39, 8.84, 8.91, 8.94, 8.94, 9.6, 4.4, 4.4, 4.6, 3.98, 4.6, 6.2, 6.98, 6.7, 8.22, 10.55, 11.37, 14.11, 16.6, 21.78, 27.12, 22.38, 19.1, 18.58, 19.42, 19.19, 18.26, 15.96, 15.01, 14.42, 14.3, 14.03, 13.53, 13.15, 12.66, 12.52, 12.3, 12.21, 12.21, 12.21, 11.05, 11.05, 11.05, 11.37, 11.69, 11.69, 11.69, 11.97, 12.31, 12.31, 12.87, 12.87, 13.23, 12.87, 12.87, 13.18, 13.18, 13.02, 13.02, 12.92, 12.54, 12.54, 12.54, 12.54, 12.81, 12.42, 12.42, 12.42, 12.27, 12.27, 12.27, 12.27, 12.53, 12.53, 12.53, 12.67, 12.53, 12.53, 12.53, 12.79, 12.39, 12.39, 11.87, 11.47, 11.72, 11.31, 11.31, 11.03, 10.62, 10.33, 9.51, 9.21, 9.21, 8.72, 8.91, 8.17, 8.17, 7.87, 7.84, 8.38, 8.46, 8.9, 8.94, 7.81, 6.44, 4.4, 4.4, 4.2, 4.6, 6.7, 6.97, 5.7, 7.15, 9.62, 11.37, 13.07, 15.02, 16.95, 20.39, 22.11, 22.24, 22.78, 22.7, 21.49, 18.41, 16.4, 15.96, 15.61, 15.17, 13.82, 14.23, 11.2, 11.33, 11.6, 11.77, 11.2, 11.2, 11.2, 11.05, 11.05, 11.05, 11.05, 11.69, 11.36, 11.69, 11.97, 11.97, 12.31, 12.63, 12.63, 12.63, 12.87, 12.87, 12.82, 12.82, 13.02, 12.65, 12.92, 12.92, 12.54, 12.54, 12.54, 12.42, 12.42, 12.42, 12.42, 12.27, 12.27, 12.27, 12.27, 12.27, 12.53, 12.53, 12.53, 12.53, 12.53, 12.53, 12.53, 12.14, 11.99, 11.87, 11.47, 11.72, 11.31, 10.8, 11.03, 10.62, 10.62, 10.33, 9.92, 9.63, 9.39, 9.33, 8.6, 8.6, 8.3, 7.84, 7.94, 8.46, 8.49, 8.94, 8.79, 6.32, 4.6, 4.4, 4.6, 5.46, 5.7, 5.7, 5.95, 7.44, 10.19, 11.99, 12.66, 13.84, 14.94, 15.99, 15.84, 19.57, 25.84, 25.59, 20.68, 18.67, 17.33, 16.74, 16.3, 15.62, 14.75, 13.09, 10.8, 10.19, 10.41, 10.73, 10.35, 10.35, 10.35, 11.05, 11.05, 11.05, 11.36, 11.36, 11.36, 11.36, 11.69, 11.97, 12.28, 12.28, 12.28, 12.28, 12.28, 12.28, 12.82, 12.82, 12.45, 12.65, 12.92, 12.92, 12.54, 12.16, 12.16, 12.42, 12.42, 12.42, 12.42, 12.27, 12.27, 12.27, 12.27, 12.27, 12.27, 12.27, 12.27, 12.53, 12.53, 12.53, 12.14, 12.14, 11.61, 11.87, 11.47, 11.72, 11.31, 10.8, 11.03, 10.62, 10.62, 10.33, 9.92, 10.12, 9.7, 9.54, 9.5, 8.6, 8.3, 7.95, 7.95, 8.02, 8.49, 8.49, 8.67, 6.87, 6.95, 4.2, 4.2, 4.4, 5.46, 5.7, 6.2, 8.22, 10.19, 10.55, 11.99, 12.79, 13.8, 13.97, 13.11, 14.66, 22.05, 25.35, 22.69, 20.47, 17.85, 16.16, 15.18, 14.75, 12.3, 11.5, 10.41, 8.53, 9.16, 9.08, 9.08, 9.08, 9.08, 10.75, 10.75, 10.75, 10.74, 11.36, 11.36, 11.36, 11.36, 11.63, 12.28, 12.28, 12.28, 12.28, 12.28, 12.28, 12.45, 12.45, 12.45, 12.45, 12.74, 12.37, 12.54, 12.16, 12.16, 12.42, 12.42, 12.42, 12.42, 12.27, 12.27, 12.27, 12.27, 12.27, 12.27, 12.27, 12.27, 12.27, 12.53, 12.14, 12.14, 11.75, 11.61, 11.47, 11.47, 11.47, 11.31, 10.8, 11.03, 10.62, 10.62, 10.33, 10.33, 9.92, 10.12, 9.86, 9.54, 9.07, 8.77, 8.41, 7.95, 7.58, 8.05, 8.49, 8.89, 7.44, 6.17, 4.6, 4.4, 5.9, 6.14, 7.27, 6.7, 8.22, 9.27, 10.19, 11.37, 12.11, 11.72, 11.42, 12.02, 13.11, 16.74, 21.33, 22.32, 22.7, 18.94, 15.53, 12.95, 12.88, 12.27, 8.85, 7.54, 7.44, 7.27, 7.9, 7.59, 7.59, 7.59, 10.43, 10.43, 10.74, 10.74, 10.74, 11.03, 11.03, 11.36, 11.63, 11.93, 11.93, 11.93, 11.93, 11.93, 11.93, 12.45, 12.45, 12.45, 12.45, 12.37, 12.37, 12.16, 12.16, 12.16, 12.16, 12.42, 12.42, 12.27, 12.27, 12.27, 12.27, 12.65, 12.65, 12.65, 12.27, 12.27, 12.27, 11.88, 11.88, 11.75, 11.75, 11.22, 11.22, 11.47, 11.08, 11.2, 10.8, 10.8, 10.62, 10.62, 10.11, 10.33, 10.33, 10.12, 9.86, 9.86, 9.54, 9.11, 8.33, 7.97, 7.97, 7.58, 8.05, 8.45, 7.37, 5.59, 4.4, 5.46, 6.14, 6.14, 6.95, 7.27, 7.9, 9.27, 9.62, 9.84, 10.73, 10.09, 11.17, 10.92, 12.52, 12.63, 14.68, 19.46, 23.84, 20.39, 13.34, 10.28, 11.62, 12.14, 11.45, 5.98, 5.52, 6.24, 6.58, 6.3, 6.3, 6.3, 10.43, 10.43, 10.74, 10.74, 10.74, 11.03, 11.03, 11.03, 11.33, 11.93, 11.93, 11.93, 11.93, 11.93, 11.93, 12.52, 12.45, 12.45, 12.09, 12.37, 11.99, 11.99, 12.16, 12.16, 12.16, 12.16, 12.42, 12.27, 12.27, 12.27, 12.65, 12.65, 12.65, 12.65, 12.27, 12.27, 12.27, 11.88, 11.88, 11.75, 11.61, 11.22, 11.22, 11.08, 11.08, 11.2, 10.8, 10.8, 10.62, 10.62, 10.52, 10.33, 10.33, 10.12, 10.12, 9.86, 9.39, 9.11, 8.64, 8.33, 7.97, 7.51, 7.57, 8.05, 7.4, 6.32, 4.83, 5.7, 6.58, 5.7, 6.42, 6.95, 6.95, 8.94, 8.53, 8.85, 9.17, 9.17, 10.43, 11.52, 11.93, 11.52, 12.02, 15.62, 25.45, 19.55, 15.18, 10.7, 10.58, 10.0, 10.88, 11.4, 6.71, 5.52, 6.17, 6.14, 6.14, 6.14, 10.43, 10.12, 10.42, 10.42, 10.42, 10.42, 10.69, 11.03, 11.33, 11.33, 11.33, 11.58, 11.93, 12.28, 12.28, 11.93, 12.45, 12.09, 12.09, 11.72, 11.99, 11.99, 11.99, 11.99, 12.16, 11.99, 12.27, 12.27, 12.65, 12.65, 12.65, 12.65, 12.65, 12.65, 12.27, 12.27, 12.27, 11.88, 11.72, 11.61, 11.61, 11.22, 11.22, 11.08, 10.94, 10.8, 10.8, 10.8, 10.62, 10.62, 10.52, 10.52, 10.33, 9.92, 10.12, 9.7, 9.39, 8.96, 8.64, 8.77, 8.3, 7.52, 7.57, 7.6, 7.31, 5.06, 5.63, 4.83, 5.46, 5.1, 6.24, 6.87, 5.29, 4.4, 5.75, 7.44, 8.15, 9.84, 10.18, 11.09, 11.29, 11.29, 11.72, 15.91, 27.22, 21.9, 17.42, 12.05, 11.12, 11.09, 10.89, 11.15, 11.18, 7.9, 7.59, 6.95, 6.95, 6.95, 10.12, 10.12, 10.09, 10.09, 10.09, 10.42, 10.69, 10.69, 10.99, 11.33, 11.68, 11.68, 12.02, 11.93, 11.93, 11.93, 11.88, 11.88, 11.72, 11.72, 11.99, 11.99, 11.99, 11.99, 11.99, 11.99, 11.99, 12.65, 12.65, 12.65, 12.65, 12.65, 12.65, 12.65, 12.27, 12.27, 11.88, 11.88, 11.34, 11.61, 11.22, 11.22, 10.83, 10.94, 10.94, 10.55, 10.8, 10.8, 10.8, 10.62, 10.52, 10.52, 10.75, 10.33, 10.12, 9.7, 9.39, 8.96, 8.64, 8.64, 8.33, 7.97, 7.57, 7.6, 7.54, 6.08, 5.21, 4.2, 5.06, 5.86, 5.46, 6.58, 6.24, 4.6, 3.82, 5.0, 7.73, 8.85, 9.84, 10.55, 10.73, 11.53, 12.95, 27.19, 27.67, 22.79, 18.27, 14.74, 12.07, 11.88, 11.51, 12.88, 11.49, 10.79, 5.95, 7.27, 7.27, 7.27, 9.5, 9.5, 10.09, 10.09, 10.09, 10.09, 10.69, 10.69, 11.33, 11.68, 11.68, 11.68, 11.68, 11.93, 11.93, 11.58, 11.88, 11.88, 11.52, 11.72, 11.72, 11.99, 11.99, 11.99, 11.99, 12.37, 12.37, 12.37, 12.37, 12.37, 12.37, 12.37, 12.65, 12.27, 12.27, 12.27, 11.88, 11.72, 11.34, 11.61, 11.22, 11.22, 10.68, 10.94, 10.94, 10.55, 10.8, 10.8, 10.8, 11.03, 10.92, 10.92, 10.75, 10.33, 9.92, 9.63, 9.21, 8.96, 8.48, 8.64, 8.3, 7.97, 7.51, 7.6, 7.6, 7.06, 5.37, 2.4, 7.27, 8.23, 7.27, 7.27, 7.27, 5.7, 5.29, 4.8, 6.45, 8.53, 9.5, 10.19, 9.84, 11.53, 17.28, 25.7, 26.2, 21.01, 17.2, 13.39, 11.95, 10.4, 9.43, 10.38, 10.96, 11.18, 7.59, 7.27, 7.27, 7.27, 9.19, 9.19, 10.09, 10.09, 10.09, 10.42, 10.42, 11.03, 11.33, 11.33, 11.33, 11.68, 11.33, 11.33, 11.58, 11.58, 11.58, 11.88, 11.88, 11.52, 12.09, 12.09, 12.37, 12.37, 12.37, 12.37, 12.74, 12.74, 12.37, 12.37, 12.37, 12.37, 12.27, 12.27, 12.27, 11.88, 11.72, 11.72, 11.34, 11.61, 11.22, 11.06, 10.68, 10.94, 10.94, 10.55, 10.55, 10.8, 10.8, 10.8, 10.92, 10.92, 10.52, 10.33, 9.92, 9.63, 9.21, 8.96, 8.48, 8.64, 8.17, 7.87, 7.51, 7.57, 8.05, 7.94, 7.2, 5.69, 8.55, 9.6, 8.58, 8.58, 7.59, 6.42, 5.06, 5.9, 5.95, 7.44, 8.85, 9.5, 10.19, 11.37, 17.26, 22.34, 25.57, 19.51, 16.05, 11.96, 10.65, 6.71, 5.54, 10.4, 11.62, 9.3, 10.0, 9.33, 9.33, 9.33, 9.19, 9.19, 9.8, 10.09, 10.42, 10.42, 10.42, 10.42, 11.33, 11.33, 11.33, 11.33, 11.33, 11.33, 11.33, 11.58, 11.58, 11.88, 11.88, 11.88, 11.88, 12.09, 12.37, 12.74, 12.74, 12.74, 12.74, 12.37, 12.37, 12.37, 12.37, 11.99, 11.99, 12.27, 12.27, 11.88, 11.72, 11.34, 11.61, 11.22, 11.06, 11.06, 10.68, 10.94, 10.94, 10.55, 10.55, 10.8, 10.8, 10.8, 10.67, 10.92, 10.52, 10.33, 9.83, 9.42, 9.21, 8.79, 8.91, 8.48, 8.21, 7.74, 7.84, 8.01, 8.05, 8.05, 8.38, 8.33, 7.89, 9.6, 9.6, 9.2, 7.59, 5.29, 6.17, 7.27, 7.27, 8.73, 9.67, 9.27, 10.19, 13.07, 16.96, 19.93, 27.47, 23.96, 17.53, 14.03, 11.13, 9.3, 0.0, 8.22, 6.97, 9.3, 9.58, 8.03, 8.03, 8.03, 9.19, 9.19, 9.8, 9.8, 10.09, 10.09, 10.09, 10.09, 10.73, 10.99, 10.99, 10.99, 11.33, 11.33, 11.33, 11.33, 11.33, 11.93, 12.24, 12.24, 12.24, 12.24, 12.74, 12.74, 12.74, 12.74, 12.74, 12.37, 12.37, 12.37, 11.99, 11.99, 11.99, 12.27, 11.88, 11.72, 11.72, 11.34, 11.61, 11.22, 11.06, 11.06, 10.68, 10.68, 10.94, 10.94, 10.55, 10.55, 10.8, 10.8, 10.8, 10.52, 10.11, 10.11, 9.83, 9.42, 9.21, 9.13, 8.72, 8.48, 8.64, 8.17, 7.84, 7.92, 8.0, 8.49, 8.49, 8.49, 8.33, 9.97, 9.2, 8.58, 7.27, 5.9, 6.95, 6.95, 5.9, 8.23, 9.2, 9.67, 12.14, 13.15, 15.58, 19.18, 25.83, 27.64, 19.1, 16.86, 12.89, 11.18, 11.62, 9.3, 9.66, 9.97, 9.3, 9.3, 9.3, 9.3, 9.19, 9.19, 9.48, 9.48, 9.77, 9.77, 10.09, 10.09, 10.39, 10.39, 10.99, 11.33, 11.33, 11.33, 11.68, 11.68, 11.68, 11.68, 12.24, 12.24, 12.24, 12.24, 12.24, 12.74, 12.37, 12.74, 12.37, 12.37, 11.99, 11.99, 11.99, 11.99, 11.99, 11.88, 11.72, 11.72, 11.34, 11.34, 11.61, 11.06, 11.06, 11.06, 10.68, 10.68, 10.94, 10.94, 10.55, 10.55, 10.8, 10.8, 10.8, 10.52, 10.11, 10.11, 9.83, 9.42, 9.01, 9.13, 8.72, 8.3, 8.48, 8.17, 7.84, 8.24, 8.33, 8.43, 8.94, 8.94, 8.94, 9.97, 9.2, 8.23, 6.95, 5.63, 6.64, 6.64, 6.64, 7.51, 8.23, 10.68, 11.72, 13.15, 14.75, 17.4, 23.67, 27.72, 21.01, 18.31, 15.95, 13.56, 12.3, 11.77, 11.77, 12.1, 11.39, 11.2, 11.2, 11.2, 9.48, 9.48, 9.48, 9.48, 9.48, 9.77, 9.77, 10.09, 10.39, 10.73, 10.73, 11.33, 11.33, 11.68, 11.68, 11.68, 11.68, 11.68, 12.0, 12.0, 12.24, 11.88, 12.24, 12.54, 12.37, 12.37, 12.37, 11.99, 11.99, 11.99, 11.99, 11.99, 11.99, 11.72, 11.72, 11.34, 11.34, 11.34, 11.22, 11.06, 11.06, 11.06, 11.06, 10.68, 10.68, 10.94, 10.55, 10.55, 10.55, 10.8, 10.4, 9.88, 10.11, 9.71, 9.6, 9.42, 9.42, 9.21, 8.72, 8.3, 8.0, 8.0, 8.12, 8.06, 8.19, 8.29, 8.87, 8.94, 8.94, 8.82, 8.91, 10.0, 9.2, 7.51, 7.51, 7.51, 7.51, 8.43, 9.55, 11.03, 12.14, 13.34, 14.75, 16.51, 22.69, 27.63, 21.46, 19.21, 17.2, 15.76, 15.04, 13.84, 12.65, 12.63, 12.1, 12.3, 12.3, 12.3, 9.48, 9.48, 9.48, 9.48, 9.48, 9.77, 9.77, 10.09, 10.09, 10.73, 10.73, 11.06, 11.33, 11.68, 11.68, 11.68, 12.0, 12.0, 12.0, 12.0, 11.64, 11.88, 12.24, 12.24, 12.17, 12.37, 11.99, 11.99, 11.99, 11.99, 11.99, 11.99, 11.72, 11.72, 11.72, 11.34, 11.34, 10.96, 11.22, 11.06, 11.06, 11.06, 11.06, 11.06, 10.68, 10.94, 10.55, 10.55, 10.55, 10.8, 10.27, 9.88, 10.11, 9.71, 9.2, 9.42, 9.42, 9.01, 8.72, 8.3, 8.22, 8.0, 7.93, 8.06, 8.19, 8.33, 8.89, 8.87, 8.94, 8.94, 9.26, 10.84, 9.97, 10.18, 7.81, 8.8, 9.13, 9.13, 10.14, 10.62, 11.98, 12.96, 14.3, 15.65, 20.98, 27.72, 21.89, 18.52, 17.35, 17.39, 16.96, 15.54, 13.92, 12.3, 12.37, 12.53, 12.53, 12.53, 9.48, 9.48, 9.48, 9.48, 9.48, 9.48, 9.77, 10.09, 10.09, 10.73, 10.73, 11.06, 11.06, 11.33, 11.33, 11.33, 11.64, 11.64, 11.64, 11.64, 11.64, 11.64, 11.88, 11.88, 12.17, 11.81, 11.99, 11.99, 11.99, 11.99, 11.99, 11.44, 11.72, 11.72, 11.34, 11.34, 11.34, 10.96, 11.06, 11.06, 11.06, 11.06, 11.06, 10.68, 10.68, 10.68, 10.55, 10.55, 10.55, 10.4, 10.27, 9.88, 10.11, 9.71, 9.6, 9.42, 9.42, 8.91, 8.72, 8.72, 8.3, 8.0, 7.93, 8.06, 8.24, 8.33, 8.77, 8.89, 8.87, 8.94, 9.39, 9.39, 9.26, 11.03, 8.4, 9.54, 9.64, 9.64, 10.14, 10.73, 11.62, 12.96, 13.86, 14.75, 18.78, 24.94, 23.81, 18.17, 17.47, 17.22, 17.64, 16.29, 15.04, 13.42, 12.44, 12.39, 12.39, 12.39, 9.48, 9.48, 9.48, 9.48, 9.48, 9.48, 9.77, 10.09, 10.09, 10.73, 10.73, 11.06, 11.06, 11.33, 11.33, 11.33, 11.64, 11.64, 11.64, 11.64, 11.64, 11.64, 11.88, 11.88, 12.17, 11.81, 11.99, 11.99, 11.99, 11.99, 11.99, 11.44, 11.72, 11.72, 11.34, 11.34, 11.34, 10.96, 11.06, 11.06, 11.06, 11.06, 11.06, 10.68, 10.68, 10.68, 10.55, 10.55, 10.55, 10.4, 10.27, 9.88, 10.11, 9.71, 9.6, 9.42, 9.42, 8.91, 8.72, 8.72, 8.3, 8.0, 7.93, 8.06, 8.24, 8.33, 8.77, 8.89, 8.87, 8.94, 9.39, 9.39, 9.26, 11.03, 8.4, 9.54, 9.64, 9.64, 10.14, 10.73, 11.62, 12.52, 13.41, 14.3, 16.07, 19.91, 23.1, 20.02, 18.06, 17.22, 17.38, 17.38, 16.29, 14.68, 12.04, 11.97, 11.97, 11.97]}, {"header": {"dx": 0.06612293990616946, "dy": 0.0552356325346848, "nx": 98, "ny": 59, "la1": 35.046912555036876, "la2": 31.78801023549047, "lo1": -121.43107172385933, "lo2": -114.95102361305473, "refTime": "2026041703", "parameterCategory": 1, "parameterNumber": 3}, "data": [-14.43, -14.19, -13.92, -13.58, -13.28, -12.02, -11.72, -11.77, -11.14, -10.43, -10.58, -8.91, -7.13, -3.14, -2.93, 0.0, 0.0, 0.0, 0.0, 0.0, 0.0, 0.0, 0.0, -6.2, -11.18, -10.4, -10.48, -11.5, -11.61, -11.61, -12.39, -12.96, -12.52, -11.18, -10.08, -9.13, -8.72, -8.05, -8.72, -9.75, -8.8, -9.7, -8.93, -8.85, -9.39, -9.91, -11.09, -10.36, 0.0, 5.46, 6.95, 7.16, 6.8, 6.47, 6.47, 6.02, 5.62, 5.62, 5.62, 5.62, 6.02, 6.02, 5.85, 4.81, 4.81, 3.52, 3.62, 3.62, 3.62, 2.45, 1.23, 1.2, 1.2, 1.3, 1.2, 2.38, 1.05, 0.0, -0.82, -1.63, -2.02, -3.25, -7.78, -10.01, -8.53, -6.97, -6.4, -5.92, -5.0, -5.0, -5.99, -6.76, -7.44, -7.59, -7.82, -5.63, -1.83, 0.0, -14.19, -14.19, -13.92, -13.58, -12.96, -12.66, -11.72, -11.41, -11.14, -10.84, -10.25, -10.43, -6.9, -3.04, -3.14, -2.93, -3.39, 0.0, -3.82, -3.68, -6.0, -5.8, -4.1, -9.17, -10.73, -10.0, -9.67, -10.48, -11.09, -12.04, -14.11, -13.86, -12.52, -9.83, -7.89, -8.3, -6.9, -7.67, -8.05, -8.82, -10.41, -11.16, -10.55, -11.3, -12.31, -13.23, -11.4, 0.0, 8.31, 8.18, 6.6, 6.17, 5.64, 5.85, 5.85, 6.02, 5.62, 5.46, 5.62, 5.62, 5.62, 5.85, 5.85, 4.81, 4.81, 4.6, 3.62, 3.37, 3.16, 2.13, 1.1, 1.23, 1.34, 1.17, 1.17, 1.05, 0.0, 0.0, -0.82, -1.63, -2.02, -3.25, -7.78, -10.01, -8.53, -6.97, -6.4, -5.92, -5.0, -5.0, -5.99, -6.76, -7.44, -7.59, -7.82, -5.63, -1.83, 0.0, -14.19, -14.19, -13.92, -13.29, -13.29, -12.99, -12.36, -11.74, -11.11, -10.84, -10.58, -9.17, -7.13, -4.81, -2.28, -2.28, 0.0, -2.82, -3.82, -5.8, -6.45, -11.2, -11.2, -13.41, -13.44, -9.2, -8.38, -9.6, -10.0, -10.68, -14.18, -14.61, -14.03, -11.18, -8.33, -8.0, -7.28, -6.98, -6.95, -8.93, -9.08, -11.52, -13.29, -14.54, -12.82, -8.71, 0.0, 6.9, 7.59, 6.8, 5.34, 4.81, 4.37, 5.19, 5.67, 4.81, 4.47, 4.6, 4.6, 4.6, 4.6, 4.81, 4.81, 4.47, 4.47, 4.6, 4.3, 3.07, 1.94, 1.0, 1.07, 1.15, 1.2, 1.17, 0.0, 0.0, 0.0, 0.0, -1.42, -2.56, -2.18, -3.25, -9.17, -11.21, -10.09, -8.82, -7.36, -6.71, -5.43, -6.72, -7.93, -8.68, -8.46, -8.85, -7.1, -4.24, -1.83, 0.0, -14.19, -13.92, -13.92, -13.29, -13.29, -12.99, -12.35, -12.04, -11.44, -10.81, -10.54, -10.25, -9.16, -5.6, -2.93, -2.28, -2.28, -2.93, -6.45, -6.7, -6.2, -7.9, -10.6, -11.18, -11.21, -10.37, -8.03, -8.43, -8.43, -10.6, -11.61, -12.98, -14.65, -15.34, -12.52, -9.6, -8.23, -7.59, -9.5, -11.09, -12.36, -13.59, -12.8, -6.87, -2.5, 0.0, 4.38, 6.4, 5.81, 4.05, 4.66, 3.3, 4.24, 4.24, 4.24, 3.88, 3.69, 3.52, 3.52, 3.79, 4.81, 4.81, 4.66, 4.66, 4.34, 3.18, 3.07, 2.57, 2.87, 3.11, 2.4, 1.3, 1.3, 0.0, 0.0, -0.99, -1.83, -2.5, -1.59, -2.55, -3.25, -3.68, -9.17, -11.28, -11.02, -10.4, -8.53, -7.65, -6.98, -8.31, -9.12, -9.22, -9.13, -8.59, -6.67, -4.24, -1.61, 0.0, -13.92, -13.92, -13.92, -13.29, -12.98, -13.33, -12.67, -12.37, -11.41, -11.14, -10.84, -10.25, -10.12, -7.78, -5.4, -4.48, -4.32, -5.4, -5.2, -8.53, -10.79, -10.41, -8.22, -10.4, -10.41, -8.53, -8.85, -9.66, -10.0, -10.08, -10.58, -10.75, -11.03, -12.27, -14.3, -14.11, -14.42, -11.53, -12.7, -13.95, -12.01, -6.8, -2.63, 0.0, 1.96, 3.81, 3.93, 3.93, 4.05, 4.18, 3.58, 3.1, 2.81, 2.89, 2.89, 2.64, 2.72, 2.8, 3.79, 3.69, 3.88, 4.89, 4.52, 4.34, 3.09, 2.19, 2.25, 2.19, 3.84, 5.53, 5.78, 4.02, 4.12, 1.45, 0.0, -2.54, -3.57, -3.28, -2.41, -2.33, -3.41, -4.81, -8.53, -10.96, -11.18, -11.51, -10.24, -8.69, -9.02, -10.75, -9.57, -8.54, -8.01, -8.1, -5.8, -3.68, -1.83, 0.0, -13.92, -13.92, -13.59, -13.29, -12.98, -12.98, -12.67, -12.37, -11.74, -11.44, -11.17, -10.54, -9.31, -8.1, -7.51, -6.21, -6.21, -6.21, -7.54, -9.27, -10.68, -12.0, -13.41, -13.41, -12.14, -9.66, -9.42, -10.35, -12.04, -11.71, -9.83, -10.28, -10.18, -10.66, -12.07, -13.86, -12.89, -11.28, -11.54, -11.9, -10.01, -7.93, -2.72, 0.0, 0.0, 2.09, 4.05, 6.4, 3.93, 3.93, 1.72, 1.72, 1.72, 1.58, 1.63, 2.89, 2.89, 2.89, 4.0, 3.58, 3.65, 4.24, 3.58, 2.15, 2.13, 1.13, 2.65, 3.72, 5.0, 7.92, 7.37, 6.77, 6.16, 3.93, 0.0, -2.19, -3.68, -3.81, -2.92, -1.83, -2.93, -7.26, -8.73, -11.46, -11.62, -11.4, -10.99, -10.73, -11.33, -11.07, -9.76, -9.48, -8.59, -8.3, -7.19, -4.24, 0.0, 0.0, -13.92, -13.92, -13.29, -12.96, -12.98, -12.98, -12.67, -12.7, -12.07, -11.44, -11.14, -10.58, -10.12, -7.19, -8.38, -7.26, -7.54, -8.01, -8.85, -9.16, -9.66, -12.72, -13.86, -12.22, -11.5, -10.09, -10.09, -11.09, -11.2, -9.86, -10.84, -9.83, -9.83, -9.39, -11.18, -12.96, -12.39, -10.73, -8.22, -8.55, -11.87, -10.79, -7.93, -3.69, 0.0, 6.8, 7.98, 7.54, 5.46, 3.81, 2.02, 1.72, 3.47, 3.58, 3.1, 2.72, 4.11, 2.81, 2.35, 3.36, 2.2, 2.2, 1.17, 0.0, 1.18, 2.52, 5.37, 6.19, 5.62, 6.64, 6.92, 5.4, 3.13, 2.05, 1.0, 0.0, -2.15, -3.85, -3.25, -3.53, -3.68, -8.22, -10.24, -10.8, -11.84, -12.04, -12.74, -12.42, -11.44, -10.59, -11.37, -10.91, -10.3, -9.48, -6.9, -2.54, 0.0, 2.37, -13.58, -13.29, -12.96, -12.96, -12.98, -12.98, -12.67, -12.01, -12.04, -11.77, -11.49, -10.9, -10.12, -9.48, -8.87, -7.02, -8.01, -9.48, -9.17, -8.01, -8.01, -6.21, -8.3, -12.87, -13.59, -10.35, -10.8, -10.87, -9.67, -10.0, -10.6, -11.62, -11.18, -10.73, -11.18, -11.18, -11.18, -11.18, -11.2, -11.62, 0.0, 0.0, 0.0, 0.0, 8.18, 8.93, 8.68, 7.98, 6.6, 3.93, 3.44, 5.28, 4.87, 4.38, 3.98, 2.48, 2.48, 1.25, 1.11, 1.08, 0.0, 0.0, 0.0, 0.0, 4.23, 6.53, 7.6, 6.02, 4.34, 3.28, 1.27, 0.0, 0.0, -1.04, -0.95, 0.0, 0.0, -1.33, -2.81, -4.89, -6.2, -8.32, -9.53, -10.99, -11.68, -12.45, -12.29, -11.81, -11.38, -11.6, -11.6, -11.6, -11.5, -11.09, -4.24, 0.0, 2.93, 6.45, -13.29, -12.96, -12.96, -13.29, -12.98, -12.98, -12.33, -12.01, -12.04, -11.74, -11.44, -11.09, -12.73, -10.73, -10.18, -9.84, -10.18, -10.18, -9.96, -9.77, -7.51, -4.65, -4.1, -4.38, -6.9, -11.87, -9.54, -7.59, -9.42, -9.6, -11.51, -12.07, -12.52, -12.07, -11.18, -10.28, -9.6, -7.59, -11.62, 0.0, 0.0, 8.85, 8.85, 9.48, 7.93, 6.2, 3.9, 6.31, 7.98, 6.8, 5.81, 4.55, 4.24, 2.72, 1.38, 0.0, 0.0, 0.0, -1.04, -1.04, -1.9, -2.5, 0.0, 5.49, 8.93, 9.12, 7.31, 4.73, 1.13, 0.0, 0.0, -1.1, -2.34, -3.07, -1.83, -2.02, -1.06, -1.17, -2.48, -4.18, -5.35, -7.44, -11.44, -11.35, -11.02, -11.62, -12.04, -11.97, -11.39, -11.85, -11.92, -12.3, -12.58, -13.41, 0.0, 3.96, 6.45, 10.04, -12.64, -12.96, -12.96, -12.98, -12.98, -12.98, -12.33, -12.35, -11.38, -11.72, -11.73, -11.73, -10.76, -10.68, -11.72, -11.16, -11.53, -12.39, -12.74, -12.14, -11.72, -11.2, -9.84, -8.73, -10.3, -10.8, -9.83, -3.68, -9.48, -11.21, -12.14, -14.3, -13.86, -12.07, -11.62, -11.62, 0.0, 0.0, 0.0, 0.0, 2.93, 5.6, 6.7, 3.68, 2.82, 0.0, 0.0, 2.81, 7.0, 7.76, 6.6, 4.66, 3.1, 1.53, 0.0, 0.0, -1.38, -2.54, -3.6, -3.29, -4.24, 0.0, 6.47, 11.38, 10.69, 10.0, 8.56, 5.78, 2.48, 0.0, 0.0, -1.3, -1.34, -2.45, -2.38, -3.12, -4.24, -3.97, -3.55, -3.69, -3.28, -4.75, -11.7, -12.35, -12.39, -12.82, -13.25, -13.15, -12.45, -12.46, -12.71, -12.52, -12.52, -12.96, 12.96, 11.87, 11.2, 11.2, -12.64, -12.64, -12.64, -12.64, -12.98, -12.98, -12.33, -11.7, -12.02, -11.38, -11.39, -11.07, -11.4, -11.04, -12.22, -11.72, -12.27, -12.42, -12.65, -13.04, -14.38, -14.73, -13.99, -11.36, -12.04, -10.58, -9.97, -0.0, -2.49, -8.85, -10.04, -6.95, -0.0, -0.0, -6.95, -11.62, -8.22, 0.0, 0.0, 3.04, 5.8, 6.94, 3.68, 2.93, 0.0, 0.0, 2.93, 5.6, 7.78, 6.9, 5.81, 5.65, 5.65, 6.34, 5.09, 5.23, 5.23, 0.0, -3.53, -4.24, 4.23, 13.96, 14.46, 13.8, 13.01, 13.29, 14.88, 13.29, 10.01, 6.43, 4.87, 3.2, 1.6, -1.6, -2.5, -3.02, -4.47, -5.75, -7.36, -6.8, -5.46, -6.35, -8.93, -14.75, -15.93, -14.75, -15.11, -15.11, -14.16, -13.41, -12.14, -12.14, -8.85, -0.0, 10.8, 12.96, 12.71, 12.04, -12.64, -12.33, -12.64, -12.64, -12.98, -12.64, -12.33, -11.7, -12.02, -12.02, -11.38, -11.39, -11.39, -11.39, -10.37, -10.01, -8.72, -8.85, -9.48, -9.8, -9.73, -10.04, -10.51, -12.52, -11.16, -10.73, -10.04, 0.0, 0.0, -0.0, -7.9, 0.0, 10.73, 7.27, 0.0, 0.0, 0.0, 5.2, 8.22, 6.7, 5.6, 6.7, 5.2, 2.82, 0.0, 0.0, 5.4, 8.85, 9.17, 7.69, 7.36, 11.7, 14.42, 17.47, 16.69, 16.69, 17.99, 14.66, 0.0, 13.86, 17.88, 17.78, 16.27, 15.02, 15.02, 17.67, 19.99, 20.66, 17.38, 14.33, 11.42, 8.66, 5.48, 0.0, -4.1, -3.97, -5.57, -9.06, -9.91, -9.39, -8.93, -8.93, -9.42, -14.3, -16.79, -19.22, -17.43, -15.2, -14.75, -13.44, -12.14, -10.79, -2.82, 5.98, 10.73, 12.96, 12.79, 12.71, -12.96, -12.33, -12.33, -12.64, -12.64, -12.64, -12.33, -12.01, -11.7, -11.38, -11.7, -11.06, -11.06, -11.38, -11.31, -10.83, -9.67, -8.4, -7.89, -7.69, -7.25, -6.32, -5.02, -3.95, -2.49, -0.86, 0.0, 0.86, 1.84, 1.09, 0.0, 0.0, 4.8, 4.6, 4.6, 7.27, 7.27, 7.9, 7.9, 6.2, 6.45, 5.2, 5.0, 2.39, 0.0, 0.0, 8.22, 10.8, 9.17, 9.48, 10.01, 11.5, 12.79, 14.61, 16.66, 17.02, 19.08, 17.8, 3.9, 11.45, 16.03, 16.35, 16.66, 15.38, 17.86, 19.34, 21.08, 23.44, 23.15, 22.39, 18.38, 14.86, 7.93, 0.0, -4.4, -5.98, -8.46, -9.88, -11.38, -11.7, -9.66, -10.33, -9.35, -4.54, 4.12, 11.27, 6.22, -15.99, -16.09, -14.3, -13.59, -9.97, -0.0, 5.98, 10.73, 12.79, 12.96, 13.23, -12.66, -12.33, -12.64, -12.64, -12.3, -12.3, -11.99, -12.01, -12.01, -11.7, -11.38, -11.06, -11.06, -11.38, -11.34, -11.53, -10.99, -10.19, -9.12, -8.5, -7.93, -6.8, -5.19, -4.43, -2.68, -1.32, 0.0, 0.7, 0.69, 0.72, 0.0, 0.0, 0.0, 0.0, 3.11, 3.11, 6.95, 8.55, 7.27, 5.95, 3.39, 0.0, 0.0, 0.0, 0.0, 7.27, 9.39, 11.18, 10.4, 11.2, 11.2, 10.8, 10.8, 12.07, 12.52, 12.52, 15.65, 4.66, 0.0, 13.15, 13.59, 15.65, 15.49, 16.48, 15.96, 15.96, 16.66, 17.81, 20.36, 19.23, 18.34, 15.8, 12.07, 3.82, -2.71, -8.18, -7.4, -10.46, -10.19, -7.6, -7.6, -2.72, -1.94, 0.0, 2.21, 6.52, 4.91, 0.0, -16.54, -16.54, -14.3, -8.94, -0.0, 8.85, 10.41, 12.46, 12.96, 12.83, -12.66, -12.66, -12.64, -12.64, -12.3, -12.61, -12.3, -11.99, -12.01, -11.7, -11.38, -10.74, -11.38, -11.03, -11.34, -11.53, -11.53, -11.08, -10.21, -9.42, -8.29, -6.92, -5.92, -5.14, -3.79, -2.57, -1.26, 0.0, 0.62, 0.66, 0.66, 0.0, 0.0, 0.0, 0.0, 3.25, 7.59, 8.18, 6.2, 3.11, 0.0, 0.0, -2.39, -2.39, 0.0, 8.8, 9.83, 10.28, 10.73, 7.9, 8.22, 7.9, 10.73, 9.39, 0.0, -10.73, -11.62, -7.13, 0.0, 12.33, 12.96, 12.79, 12.87, 12.27, 13.19, 14.42, 15.69, 16.12, 13.8, 15.71, 14.54, 14.13, 11.41, 11.2, 13.41, 15.69, 14.51, 14.3, 10.19, 6.31, 5.51, 2.11, 0.0, 0.0, 0.0, 0.0, 0.0, 0.0, -7.2, -16.22, -16.99, -13.15, -0.0, 12.04, 13.09, 12.96, 12.83, 12.83, -12.66, -12.66, -12.98, -12.64, -12.3, -12.61, -12.3, -12.3, -11.68, -11.7, -11.38, -11.05, -11.05, -11.34, -11.64, -11.24, -11.16, -11.16, -10.61, -9.5, -8.65, -7.3, -6.26, -4.69, -3.95, -2.57, -1.26, -0.63, 0.0, 0.0, 0.0, 0.0, -0.6, -1.33, 0.0, 2.83, 8.55, 8.23, 5.95, 2.49, 0.0, 0.0, 0.0, 0.0, 0.0, 8.4, 9.83, 10.28, 9.2, 9.2, 5.0, 5.2, 5.2, 0.0, 0.0, -9.83, -9.2, -6.45, 0.0, 11.06, 10.24, 9.08, 8.22, 7.24, 8.53, 11.6, 12.79, 14.75, 12.87, 15.74, 13.4, 2.66, 0.0, 18.78, 15.2, 17.02, 17.19, 14.82, 12.96, 11.93, 11.0, 7.44, 3.33, 1.47, 0.0, -2.71, -3.25, -3.14, -3.56, -9.8, -14.53, 0.0, 12.88, 13.41, 12.52, 12.07, 12.22, 12.22, -12.66, -12.66, -12.98, -12.64, -12.3, -12.61, -12.61, -12.3, -11.99, -11.68, -11.05, -11.05, -11.36, -11.34, -11.64, -10.87, -10.87, -10.8, -10.0, -9.5, -8.65, -7.03, -6.19, -4.82, -3.28, -2.54, -1.92, -1.28, -0.62, -0.62, -0.63, -0.61, -1.92, -2.62, -2.17, 2.97, 6.95, 4.8, 3.25, 0.0, -2.39, 0.0, 0.0, 0.0, 0.0, 8.8, 10.28, 10.28, 9.75, 8.55, 5.7, 5.95, 6.2, 5.95, 3.39, 0.0, 0.0, 0.0, 5.4, 8.3, 8.01, 6.98, 5.52, 4.8, 7.59, 10.28, 11.62, 11.03, 9.8, 4.23, 0.0, -10.65, -14.88, 0.0, 15.99, 17.26, 16.48, 15.22, 13.91, 13.28, 11.88, 9.67, 5.37, 2.98, 0.0, -1.91, -5.4, -5.11, -5.28, -7.69, -5.81, 6.0, 11.99, 12.81, 12.75, 11.56, 11.44, 11.44, -12.66, -12.66, -12.98, -12.98, -12.64, -12.61, -12.61, -12.3, -11.62, -11.33, -11.03, -11.05, -11.36, -11.34, -11.64, -10.59, -10.8, -10.8, -10.08, -9.01, -7.4, -7.33, -6.03, -4.69, -3.28, -2.54, -2.52, -2.45, -1.84, -2.45, -2.38, -2.4, -2.56, -2.52, -2.6, 0.0, 0.0, 0.0, 0.0, -3.11, -3.11, 0.0, 0.0, 0.0, 0.0, 7.27, 10.18, 9.75, 8.55, 7.27, 5.7, 4.6, 6.17, 6.17, 6.17, 6.17, 3.82, 5.52, 6.98, 6.2, 6.7, 5.2, 4.8, 3.98, 7.59, 9.83, 9.39, 9.2, 0.0, -3.07, -5.53, -7.99, -4.77, 0.0, 7.8, 13.05, 13.46, 11.89, 10.31, 10.08, 9.24, 6.28, 3.88, 0.0, 0.0, 0.0, 0.0, -3.56, -1.66, 0.0, 3.47, 8.54, 9.97, 11.71, 12.42, 11.85, 10.73, 10.73, -12.66, -12.66, -12.66, -12.66, -12.64, -12.3, -12.61, -12.3, -11.92, -11.62, -11.03, -11.03, -11.36, -11.29, -11.34, -12.13, -10.94, -10.15, -9.42, -7.76, -7.4, -7.8, -7.65, -6.81, -4.95, -3.9, -3.56, -4.53, -4.67, -3.65, -3.61, -3.04, -2.51, -1.88, -2.19, -2.6, -2.71, -3.98, -4.4, -4.8, -3.65, -2.02, 0.0, 0.0, 2.82, 5.95, 7.59, 8.55, 7.27, 7.27, 4.6, 4.6, 6.17, 7.27, 7.27, 7.27, 6.42, 6.98, 7.54, 6.45, 5.2, 5.2, 3.53, 3.11, 9.13, 9.39, 9.29, 9.55, 3.98, 0.0, 0.0, 0.0, 2.31, 3.48, 3.98, 2.52, 0.0, 0.0, 0.0, 1.45, 0.0, -1.93, -1.78, -3.04, 0.0, 0.0, 4.24, 4.55, 1.9, 4.71, 7.58, 8.23, 9.66, 10.79, 12.66, 12.5, 11.28, 11.28, -12.66, -12.66, -12.66, -12.66, -12.3, -12.3, -12.3, -12.3, -11.92, -11.62, -11.33, -11.03, -10.99, -11.29, -11.29, -10.59, -10.51, -10.3, -10.19, -9.41, -8.55, -8.83, -9.57, -9.67, -8.7, -6.62, -5.48, -5.2, -5.15, -4.1, -3.04, -2.45, -1.88, -1.33, -2.14, -2.95, -3.16, -3.16, -2.41, -2.31, -1.63, -0.82, 0.0, 0.0, 1.7, 3.68, 4.6, 4.6, 4.6, 4.4, 4.4, 4.6, 7.59, 8.94, 7.68, 6.95, 6.98, 6.87, 6.87, 5.2, 4.15, 3.98, 3.98, 7.59, 10.18, 10.2, 10.2, 10.27, 7.73, 5.45, 3.72, 3.23, 4.14, 3.02, 0.0, -1.69, -6.34, -9.66, -5.94, -4.12, -2.8, -2.96, -2.72, -1.48, 0.0, 1.9, 6.65, 7.78, 5.27, 5.08, 5.28, 7.79, 9.84, 10.55, 11.75, 11.68, 11.33, 11.33, -12.66, -12.66, -12.66, -12.66, -11.99, -11.99, -12.3, -12.3, -11.92, -11.92, -11.33, -10.65, -10.65, -10.94, -10.94, -10.94, -10.59, -9.95, -9.38, -10.97, -10.31, -8.97, -9.66, -9.23, -8.47, -7.2, -5.81, -4.93, -4.1, -2.93, -2.39, -1.81, -1.28, -1.36, -1.54, -2.51, -3.29, -3.16, -3.16, -2.34, -1.48, -0.74, 0.0, 0.0, 0.77, 1.5, 1.62, 3.82, 4.6, 2.49, 2.39, 5.7, 8.58, 8.94, 8.58, 8.23, 7.9, 7.9, 7.26, 4.15, 5.0, 5.0, 8.93, 10.96, 10.28, 10.65, 10.62, 11.09, 10.37, 9.13, 9.2, 8.63, 8.04, 2.27, -2.66, -5.76, -13.07, -14.06, -11.7, -8.16, -4.95, -2.38, -1.13, 0.0, 1.38, 3.68, 6.65, 7.11, 5.16, 4.12, 2.06, 8.05, 10.12, 9.48, 9.8, 10.43, 11.52, 11.52, -12.33, -12.66, -12.66, -12.33, -11.99, -11.99, -11.99, -12.3, -11.92, -11.62, -11.33, -10.65, -10.65, -10.94, -10.94, -10.94, -10.87, -10.3, -10.37, -10.02, -8.93, -8.28, -7.88, -8.12, -7.98, -7.14, -5.65, -4.99, -3.5, -2.87, -2.26, -1.72, -1.81, -1.28, -1.44, -2.34, -2.61, -3.68, -3.29, -2.51, -2.34, -1.48, -1.48, -0.75, 0.0, 0.0, 0.0, 1.93, 2.02, 0.0, 2.49, 5.95, 9.6, 10.0, 8.58, 8.94, 9.67, 10.19, 8.22, 7.59, 7.27, 9.6, 11.18, 11.18, 11.09, 11.09, 11.18, 11.09, 12.14, 13.19, 13.58, 16.74, 13.77, 4.45, -6.48, -9.77, -14.29, -15.76, -14.61, -12.22, -8.68, -4.54, -1.23, 0.0, 1.19, 2.63, 3.25, 3.47, 1.23, 2.71, 2.62, 8.38, 10.12, 8.78, 8.31, 10.12, 11.8, 11.8, -12.33, -12.33, -12.33, -11.99, -11.99, -11.99, -11.99, -11.62, -11.62, -11.62, -11.33, -10.65, -10.65, -10.65, -10.94, -10.53, -10.53, -10.25, -10.02, -9.99, -8.88, -7.98, -7.39, -7.17, -7.11, -7.0, -6.42, -5.09, -4.26, -3.61, -2.85, -2.87, -2.26, -1.81, -1.91, -2.14, -2.28, -2.44, -2.61, -2.61, -2.61, -2.44, -1.64, -1.64, -0.83, 0.0, 0.0, 0.0, 0.0, 0.0, 2.49, 7.59, 9.6, 10.0, 9.6, 9.6, 10.38, 11.92, 11.6, 7.81, 9.11, 10.28, 11.62, 11.51, 11.09, 10.84, 11.28, 10.75, 11.18, 11.5, 13.59, 15.99, 1.75, 0.0, 0.0, -8.4, -12.88, -14.19, -14.81, -13.89, -10.52, -8.68, -6.02, -2.57, -1.23, 0.0, 0.0, 0.0, 0.0, 2.98, 4.1, 8.05, 8.78, 8.2, 7.58, 7.36, 12.79, 12.79, -12.33, -12.33, -12.33, -11.68, -11.99, -11.99, -11.62, -11.62, -11.62, -11.62, -11.33, -10.65, -10.65, -10.65, -10.61, -10.19, -10.19, -9.92, -10.02, -9.57, -9.12, -8.71, -7.26, -7.32, -6.64, -6.34, -6.29, -5.7, -4.95, -4.81, -4.17, -3.5, -2.87, -2.34, -2.28, -1.84, -1.94, -2.06, -2.28, -2.44, -2.44, -2.61, -1.77, -1.77, -1.77, -0.93, 0.0, 0.0, 0.0, 0.0, 0.0, 6.2, 8.93, 8.93, 9.2, 9.2, 9.97, 12.07, 12.71, 9.97, 8.0, 9.39, 11.18, 11.51, 11.06, 11.61, 11.09, 10.73, 10.0, 10.38, 7.9, -4.99, 0.0, 7.54, 6.84, 6.65, 2.63, -7.78, -12.0, -12.79, -11.42, -10.51, -8.99, -7.1, -5.67, -4.24, -2.89, -3.2, 0.0, 11.38, 8.51, 8.97, 8.31, 6.98, 6.4, 7.36, 12.39, 12.39, -12.33, -12.33, -12.01, -11.68, -11.68, -11.68, -11.62, -11.62, -11.62, -11.62, -10.94, -10.65, -10.65, -10.33, -10.33, -10.19, -9.92, -9.61, -9.32, -9.32, -9.42, -8.94, -8.21, -7.71, -6.8, -6.6, -6.1, -5.59, -5.54, -4.85, -4.3, -4.17, -3.53, -3.41, -2.9, -2.28, -2.3, -2.42, -2.56, -2.14, -2.28, -1.54, -1.58, -1.7, -1.84, -1.76, -2.08, -1.07, -0.98, 0.0, 0.0, 3.04, 7.59, 10.18, 9.75, 9.75, 10.28, 9.83, 11.62, 11.2, 7.9, 8.05, 9.54, 10.73, 11.51, 11.61, 10.8, 10.48, 10.04, 5.2, 0.0, -1.56, 1.82, 9.16, 10.49, 9.54, 7.69, 3.79, -1.77, -11.16, -12.23, -11.18, -9.83, -8.29, -7.92, -5.99, -5.18, -2.43, 9.12, 14.3, 14.33, 10.43, 8.84, 7.73, 6.76, 7.69, 11.09, 11.09, -12.01, -12.01, -11.7, -11.68, -11.68, -11.68, -11.33, -11.33, -11.62, -10.89, -10.61, -10.94, -10.33, -10.33, -10.33, -9.92, -9.92, -9.61, -9.32, -9.32, -9.42, -8.94, -8.94, -7.92, -7.49, -6.8, -6.1, -5.42, -5.42, -4.89, -4.89, -4.2, -4.07, -3.68, -3.44, -2.93, -2.82, -2.84, -2.42, -2.42, -1.94, -2.14, -1.48, -1.58, -1.63, -1.76, -2.08, -0.93, -0.98, -0.98, 0.0, 0.0, 3.96, 11.45, 10.6, 10.18, 10.28, 9.83, 10.28, 11.62, 8.53, 9.66, 8.91, 9.74, 10.75, 11.45, 10.73, 11.2, 9.17, 6.44, 1.71, 0.0, 1.3, 6.46, 11.67, 13.57, 11.14, 6.37, 0.99, -7.44, -11.99, -11.88, -11.87, -9.8, -8.41, -6.35, -6.17, 0.0, 11.52, 13.89, 13.59, 11.22, 8.61, 7.67, 6.88, 7.36, 8.05, 8.05, -12.01, -12.01, -11.38, -11.68, -11.68, -11.68, -11.33, -11.33, -11.33, -10.61, -10.61, -10.61, -10.33, -10.33, -9.92, -9.92, -9.61, -9.61, -9.32, -9.17, -9.17, -8.71, -8.71, -8.41, -7.71, -6.75, -6.56, -6.1, -5.42, -4.74, -4.58, -4.07, -4.1, -4.1, -3.6, -3.6, -3.6, -3.63, -3.07, -2.96, -2.99, -2.52, -2.66, -1.98, -1.36, -1.58, -1.7, -1.84, -1.76, -1.93, -2.33, -1.39, 0.0, 8.55, 11.18, 10.73, 10.73, 10.28, 8.91, 10.28, 10.04, 9.3, 10.38, 10.32, 11.62, 10.4, 10.35, 8.1, 8.1, 5.11, 1.61, 0.0, 0.0, 2.4, 7.47, 13.37, 8.5, 4.77, 1.83, -1.93, -11.18, -12.1, -12.27, -10.28, -9.8, -9.34, -7.0, 7.0, 12.65, 12.0, 10.75, 10.15, 9.43, 8.11, 8.06, 7.36, 7.5, 7.5, -12.01, -12.01, -11.38, -11.68, -11.68, -11.68, -11.33, -11.33, -11.33, -10.61, -10.61, -10.61, -10.61, -10.19, -10.19, -9.92, -9.61, -9.61, -9.61, -9.17, -9.17, -8.71, -8.71, -8.19, -7.71, -7.24, -6.56, -6.56, -5.88, -5.21, -4.74, -4.74, -4.07, -4.1, -3.96, -3.6, -3.6, -3.77, -3.63, -3.07, -2.96, -3.11, -2.42, -2.35, -1.81, -1.98, -2.02, -1.56, -1.62, -2.71, -3.53, -2.6, -1.76, 3.25, 10.18, 11.62, 11.18, 10.73, 10.28, 10.28, 10.96, 10.6, 10.75, 11.61, 10.4, 10.73, 9.48, 5.6, 0.0, 0.0, 1.77, 0.0, 0.0, -1.25, 0.0, 0.0, -1.31, 0.0, 0.0, 0.0, -6.71, -11.35, -12.72, -10.81, -9.69, -9.8, -4.66, 9.39, 11.06, 8.57, 9.44, 9.09, 7.84, 7.95, 8.03, 7.93, 7.45, 7.45, -11.38, -11.38, -11.38, -11.38, -11.68, -11.33, -11.33, -11.33, -11.33, -10.61, -10.61, -10.61, -10.19, -10.19, -10.19, -9.61, -9.61, -9.61, -9.61, -9.17, -9.17, -8.93, -8.19, -8.19, -7.49, -7.49, -6.8, -6.8, -6.1, -5.59, -5.42, -4.74, -4.74, -4.07, -4.1, -4.13, -3.6, -3.77, -3.63, -3.63, -3.68, -3.11, -3.15, -2.93, -2.16, -1.45, -1.84, -2.53, -2.65, -3.25, -4.15, -3.39, -2.82, 0.0, 7.59, 10.73, 12.07, 11.62, 10.18, 11.18, 11.18, 11.02, 11.95, 11.62, 11.21, 11.26, 11.28, 8.85, 0.0, -3.68, 2.28, 4.24, 2.48, -1.21, -5.99, -8.2, -9.33, -4.66, 0.0, 2.25, 1.04, -2.23, -8.85, -9.16, -8.1, -3.68, 2.2, 5.48, 4.81, 6.8, 8.18, 7.54, 7.49, 7.2, 7.6, 7.6, 7.4, 7.4, -11.38, -11.38, -11.38, -11.38, -11.68, -11.33, -11.33, -11.33, -11.33, -10.61, -10.61, -10.19, -10.19, -10.19, -9.87, -9.61, -9.61, -9.61, -9.17, -8.93, -8.93, -8.93, -8.4, -7.96, -7.96, -7.28, -7.28, -6.8, -6.1, -6.1, -5.42, -5.42, -4.74, -4.58, -4.62, -3.96, -4.13, -3.6, -3.63, -3.63, -3.63, -3.68, -3.68, -3.03, -3.53, -2.28, -2.19, -2.82, -3.46, -4.01, -4.01, -4.25, -3.61, -2.82, 0.0, 10.73, 9.83, 10.6, 10.4, 10.84, 10.73, 11.18, 11.84, 11.28, 11.45, 12.14, 12.45, 12.79, 10.0, 6.95, 5.95, 8.05, 7.2, 3.89, -2.05, -9.05, -9.64, -7.37, -2.14, 0.0, 2.09, 0.61, 0.0, -0.78, 0.0, 1.3, 2.28, 2.35, 1.34, 4.66, 6.6, 6.35, 6.02, 6.16, 6.13, 6.32, 6.32, 6.32, -11.38, -11.38, -11.38, -11.38, -11.38, -11.33, -11.33, -11.33, -10.65, -10.33, -10.61, -10.61, -10.19, -9.87, -9.87, -9.61, -9.35, -9.61, -9.17, -9.17, -8.93, -8.68, -8.4, -7.96, -7.73, -7.54, -7.32, -6.84, -5.92, -6.1, -6.1, -5.42, -5.42, -5.25, -4.77, -4.62, -4.13, -4.13, -4.33, -3.63, -3.63, -3.82, -3.68, -3.72, -3.77, -4.12, -4.48, -3.85, -3.69, -4.3, -4.8, -4.92, -5.29, -3.77, -1.76, 0.0, 10.28, 11.62, 10.18, 10.0, 10.84, 11.62, 12.07, 11.4, 11.84, 11.62, 11.53, 12.3, 10.04, 7.27, 8.05, 8.49, 8.68, 9.76, 4.66, -1.87, -8.21, -8.18, -6.93, -4.05, -0.88, 0.0, 1.16, 1.77, 2.37, 2.56, 2.56, 2.49, 3.0, 3.58, 3.88, 3.88, 3.69, 4.03, 4.41, 4.31, 4.55, 4.55, -11.07, -11.07, -11.38, -11.38, -11.03, -11.03, -11.03, -11.03, -10.65, -10.33, -10.33, -10.61, -10.19, -9.87, -9.87, -9.61, -9.35, -8.93, -9.17, -8.93, -8.68, -8.68, -8.24, -8.0, -8.0, -7.54, -7.32, -6.89, -6.62, -5.69, -5.92, -5.92, -5.42, -5.25, -5.46, -4.77, -4.62, -4.28, -4.13, -4.33, -4.17, -3.63, -3.68, -3.68, -4.26, -4.26, -3.92, -3.39, -3.85, -4.01, -4.13, -4.6, -5.14, -5.95, -5.98, 0.0, 0.0, 7.9, 9.6, 10.28, 12.07, 11.62, 11.46, 11.18, 11.62, 11.18, 10.28, 11.28, 8.85, 7.54, 7.27, 6.87, 7.69, 7.77, 8.14, 2.4, -2.81, -7.56, -9.13, -6.64, -2.48, 0.0, 1.41, 2.38, 2.85, 2.93, 2.95, 3.58, 3.47, 3.81, 3.12, 2.35, 2.43, 2.15, 3.48, 3.39, 3.49, 3.49, -11.07, -11.07, -11.07, -11.38, -11.03, -11.03, -11.03, -11.03, -10.65, -10.33, -10.33, -10.33, -10.19, -9.87, -9.87, -9.61, -9.61, -8.93, -8.93, -8.93, -8.68, -8.68, -8.0, -8.0, -8.0, -7.32, -7.32, -7.1, -6.68, -6.43, -5.74, -5.69, -5.46, -5.46, -5.46, -5.46, -4.77, -4.98, -4.81, -4.13, -4.33, -4.33, -4.17, -4.21, -4.05, -4.05, -4.05, -3.57, -3.98, -3.61, -3.46, -3.69, -5.0, -5.52, -6.17, -4.8, -2.1, 0.0, 0.0, 3.39, 8.93, 10.73, 11.62, 10.73, 11.18, 10.96, 10.41, 8.82, 8.22, 6.67, 7.85, 6.5, 2.52, 1.15, 3.64, 4.16, 3.28, 0.0, -4.38, -5.48, -1.88, 0.0, 0.74, 1.43, 1.75, 1.76, 2.93, 3.69, 3.47, 3.25, 2.32, 1.21, 0.0, 0.0, 0.0, 1.89, 1.78, 1.78, -11.07, -11.07, -11.07, -11.07, -11.03, -11.03, -11.03, -11.03, -10.65, -10.33, -10.33, -10.33, -9.61, -9.87, -9.61, -9.61, -8.93, -8.93, -8.93, -8.68, -8.68, -8.0, -8.0, -8.0, -7.76, -7.32, -7.1, -7.1, -7.32, -6.64, -6.0, -5.5, -5.5, -5.46, -5.46, -5.46, -5.69, -5.15, -4.98, -4.81, -4.81, -4.33, -4.33, -4.17, -4.21, -4.05, -4.05, -3.57, -3.77, -3.77, -3.98, -3.53, -3.61, -4.31, -4.25, -4.18, -2.49, -1.39, 0.0, 0.0, 8.85, 10.84, 11.18, 11.18, 10.18, 10.52, 9.96, 9.6, 9.3, 8.85, 8.85, 7.82, 3.44, 0.0, 0.0, 3.09, 6.31, 5.83, 3.78, 0.0, -1.98, -2.52, -1.47, -0.71, 0.0, 1.28, 2.08, 2.84, 1.89, 1.21, 0.0, 0.0, 0.0, -1.03, -0.89, 0.0, 0.0, 0.0, -11.07, -11.07, -11.07, -11.07, -10.73, -11.03, -11.03, -11.03, -10.65, -10.33, -10.33, -10.33, -9.61, -9.87, -9.61, -9.17, -8.93, -8.93, -8.93, -8.93, -8.68, -8.0, -8.0, -8.0, -7.76, -7.32, -7.1, -7.1, -7.1, -6.4, -6.15, -5.96, -5.5, -5.5, -5.5, -5.69, -5.69, -5.69, -5.5, -4.98, -4.98, -4.81, -4.33, -4.17, -4.17, -4.02, -4.05, -4.05, -4.26, -4.3, -3.77, -3.92, -3.2, -3.25, -3.61, -3.02, -2.39, -1.76, 0.0, 1.45, 5.06, 10.4, 10.52, 11.02, 11.02, 10.96, 9.96, 10.0, 9.3, 9.16, 8.85, 8.87, 5.02, 2.07, 0.0, 2.14, 6.23, 7.0, 7.06, 3.92, 0.0, -1.54, -2.32, -1.59, 0.0, 0.82, 1.72, 1.23, 0.0, 0.0, 0.0, 0.0, 0.0, -0.96, -0.99, -0.99, 0.0, 0.0, -10.76, -10.76, -11.07, -11.07, -10.73, -10.73, -11.03, -11.03, -10.65, -10.33, -10.33, -10.33, -9.61, -9.61, -9.61, -9.17, -8.93, -8.93, -8.93, -8.93, -8.24, -8.0, -8.0, -7.76, -7.76, -7.32, -7.1, -7.1, -7.1, -6.64, -6.64, -6.15, -5.96, -5.77, -5.5, -5.5, -5.5, -5.5, -5.5, -5.5, -4.98, -5.03, -5.03, -4.33, -4.17, -4.17, -4.02, -4.21, -4.05, -4.26, -4.3, -3.77, -3.77, -3.03, -3.07, -2.39, -1.93, -1.39, -0.75, 1.14, 4.05, 7.44, 9.6, 10.18, 9.89, 10.38, 9.55, 10.18, 10.0, 9.09, 9.17, 8.54, 7.6, 5.96, 3.16, 1.09, 3.21, 5.01, 5.42, 3.69, 2.14, 0.72, 0.0, 0.0, 0.96, 1.08, 1.17, 0.0, 0.0, 2.13, 2.13, 2.13, 1.61, 0.0, 0.0, 0.0, 0.0, 0.0, -11.06, -11.06, -11.07, -11.07, -10.73, -10.73, -11.03, -11.03, -10.65, -10.33, -10.33, -10.33, -9.61, -9.61, -9.61, -9.17, -8.93, -8.93, -8.93, -8.93, -8.24, -8.0, -8.0, -7.76, -7.76, -7.32, -7.1, -7.1, -7.1, -6.64, -6.64, -6.64, -6.15, -5.96, -5.96, -5.5, -5.5, -5.5, -5.74, -5.74, -5.74, -5.03, -4.86, -4.36, -4.05, -4.17, -4.17, -4.02, -4.21, -4.26, -4.26, -4.08, -3.57, -3.57, -2.77, -2.77, -2.39, -1.16, 0.0, 0.0, 2.13, 5.46, 9.2, 9.33, 10.32, 10.38, 9.33, 9.89, 9.6, 9.32, 8.82, 9.17, 10.18, 8.4, 7.26, 2.22, 0.0, -1.06, -1.01, 0.0, 0.73, 2.16, 2.84, 2.13, 2.37, 2.72, 1.9, 1.17, 1.83, 4.1, 4.1, 6.0, 3.25, 2.4, 1.97, 1.71, 0.84, 0.0, -11.06, -11.06, -11.06, -10.73, -10.73, -10.73, -10.73, -10.37, -10.65, -10.33, -10.33, -10.05, -9.35, -9.35, -9.61, -8.93, -8.93, -8.93, -8.93, -8.47, -8.24, -8.24, -8.0, -7.76, -7.76, -7.1, -7.1, -7.1, -7.1, -7.1, -6.64, -6.64, -6.64, -6.15, -5.96, -6.2, -5.5, -5.5, -5.5, -5.74, -5.74, -5.55, -5.6, -4.65, -3.72, -4.37, -4.68, -4.68, -4.72, -4.05, -4.26, -4.08, -4.08, -3.42, -2.77, -2.93, -2.28, -1.16, 0.0, 0.0, 1.76, 3.81, 6.44, 8.4, 9.33, 10.52, 10.58, 9.45, 9.86, 9.7, 9.7, 10.12, 9.44, 8.97, 11.2, 9.36, 1.95, -3.18, -6.8, -4.46, -1.61, 0.0, 1.51, 2.43, 3.17, 3.07, 2.41, 2.9, 3.53, 4.24, 4.24, 2.91, 2.63, 1.9, 0.84, 0.72, 0.0, 0.84, -11.06, -11.06, -11.06, -10.43, -10.73, -10.73, -10.73, -10.37, -10.37, -10.05, -10.05, -10.05, -9.92, -9.61, -9.61, -9.17, -9.17, -8.93, -8.93, -8.24, -8.24, -8.0, -8.0, -7.76, -7.76, -7.1, -7.1, -7.1, -7.1, -7.1, -6.64, -6.64, -6.64, -6.64, -6.15, -6.15, -6.2, -6.0, -5.5, -5.74, -5.74, -5.55, -5.8, -5.65, -5.43, -4.21, -4.68, -5.4, -4.72, -4.54, -4.26, -4.08, -4.08, -3.42, -2.93, -2.93, -2.28, -0.59, 0.0, 0.0, 1.62, 2.47, 2.67, 6.95, 9.2, 10.08, 9.46, 9.2, 9.86, 9.7, 9.7, 8.93, 8.66, 9.09, 11.8, 16.09, 11.98, 4.31, -1.02, -5.73, -5.45, -4.24, 0.0, 1.77, 2.55, 2.49, 2.35, 2.72, 3.22, 2.28, 1.25, 1.38, 0.0, 0.0, 0.0, 0.0, 0.0, 0.0, -11.06, -11.06, -10.74, -10.74, -10.74, -10.43, -10.37, -10.37, -10.37, -10.37, -10.05, -10.33, -9.92, -9.92, -9.92, -9.17, -9.17, -8.93, -8.47, -8.24, -8.0, -8.0, -7.76, -7.76, -7.32, -7.1, -7.1, -7.1, -7.36, -7.36, -7.1, -6.43, -6.64, -6.64, -6.64, -6.15, -5.96, -6.2, -6.2, -5.69, -5.74, -5.55, -5.8, -6.08, -5.6, -6.0, -4.95, -4.76, -4.57, -4.57, -4.57, -3.91, -3.91, -3.61, -2.93, -2.8, -2.28, -1.18, 0.0, 0.0, 0.78, 1.68, 2.1, 5.46, 8.8, 10.08, 9.33, 9.96, 9.75, 9.7, 9.46, 8.93, 9.17, 8.66, 10.18, 13.83, 18.42, 13.74, 8.0, 5.33, 2.43, 0.0, 2.5, 2.97, 2.51, 1.59, 0.92, 1.05, 1.13, 0.0, 0.0, 0.0, -1.25, -1.83, -1.66, -1.51, -1.61, -1.61, -10.74, -10.74, -10.74, -10.74, -10.74, -10.74, -10.37, -10.37, -10.37, -10.37, -10.33, -9.92, -9.92, -9.92, -9.92, -9.49, -9.17, -8.93, -8.93, -8.24, -8.0, -8.0, -7.76, -7.76, -7.32, -7.32, -7.1, -7.36, -7.36, -7.36, -7.36, -6.64, -6.64, -6.64, -6.43, -6.64, -6.64, -6.4, -6.4, -6.2, -6.45, -5.74, -5.55, -6.04, -6.04, -5.55, -4.9, -4.57, -4.6, -4.6, -4.12, -3.94, -3.94, -3.45, -2.8, -2.8, -1.75, -1.12, -0.64, 0.0, 0.0, 0.0, 0.94, 4.4, 8.8, 9.64, 9.55, 9.55, 9.75, 10.0, 8.93, 7.9, 7.78, 7.28, 8.18, 8.53, 10.64, 15.12, 13.76, 11.52, 10.23, 9.55, 8.2, 6.26, 4.59, 3.41, 1.95, 0.0, 0.0, -1.42, -2.81, -2.81, -3.98, -3.25, -2.39, -2.54, -2.54, -2.54, -10.44, -10.44, -10.74, -10.74, -10.74, -10.39, -10.69, -10.37, -10.37, -10.37, -10.33, -9.92, -9.92, -9.92, -9.92, -9.49, -8.93, -8.93, -8.93, -8.0, -8.0, -7.76, -7.76, -7.76, -7.32, -7.32, -7.1, -7.36, -7.36, -7.36, -7.36, -6.89, -6.89, -6.89, -6.43, -6.64, -6.89, -6.89, -6.4, -6.4, -6.2, -6.25, -6.25, -6.04, -6.04, -5.55, -4.86, -4.72, -4.08, -4.12, -3.94, -3.94, -3.49, -3.49, -2.97, -2.83, -2.19, -1.69, -1.29, -1.36, -0.74, 0.0, 0.0, 4.8, 8.8, 8.8, 9.2, 9.96, 9.2, 9.3, 8.73, 8.38, 8.22, 7.54, 7.11, 5.64, 6.64, 9.33, 14.69, 15.57, 14.76, 14.71, 11.95, 9.6, 7.3, 5.81, 4.41, 3.09, 0.0, -2.81, -3.01, -4.38, -5.63, -4.81, -4.1, -4.36, -4.36, -4.36, -10.44, -10.44, -10.44, -10.74, -10.39, -10.39, -10.39, -10.08, -10.37, -10.37, -9.66, -9.66, -9.92, -9.66, -9.66, -9.23, -9.23, -8.68, -8.68, -8.0, -7.76, -7.76, -7.76, -7.76, -7.32, -7.1, -7.1, -7.1, -7.36, -7.36, -7.36, -7.36, -6.89, -6.89, -6.89, -6.64, -6.89, -6.89, -6.89, -6.4, -6.2, -6.2, -6.25, -6.04, -5.55, -5.36, -5.36, -4.9, -4.72, -4.26, -3.91, -3.45, -3.45, -3.49, -2.97, -2.33, -2.33, -1.69, -1.81, -1.4, -0.71, -0.81, 0.0, 3.35, 8.58, 8.8, 8.8, 8.4, 9.2, 8.38, 9.3, 8.55, 8.59, 8.01, 7.11, 5.81, 5.78, 6.98, 10.2, 14.37, 18.0, 17.31, 12.53, 9.98, 8.1, 7.13, 5.81, 3.9, 0.89, -0.99, -1.42, -5.6, -6.3, -5.8, -5.43, -5.6, -5.6, -5.6, -10.44, -10.44, -10.44, -10.44, -10.39, -10.1, -10.39, -10.08, -10.08, -10.37, -9.97, -9.97, -9.97, -9.66, -9.66, -8.97, -8.97, -8.68, -8.43, -8.0, -8.0, -7.76, -7.76, -7.76, -7.1, -7.1, -7.1, -7.1, -7.36, -7.36, -7.36, -7.36, -7.36, -6.89, -6.89, -6.89, -6.89, -6.89, -6.89, -6.89, -6.68, -6.0, -6.25, -6.04, -5.55, -5.36, -5.4, -4.9, -4.72, -4.72, -4.26, -4.08, -3.61, -2.93, -3.11, -2.46, -2.46, -1.78, -1.81, -1.32, -0.71, 0.0, 0.0, 3.3, 6.32, 9.2, 8.8, 7.67, 8.18, 8.55, 8.55, 8.93, 8.93, 7.28, 6.0, 5.63, 6.29, 5.98, 8.0, 10.89, 16.31, 16.85, 12.79, 9.6, 8.62, 7.22, 4.88, 2.83, 0.82, 0.0, -2.91, -5.4, -7.28, -6.94, -6.44, -6.21, -6.21, -6.21, -10.44, -10.44, -10.44, -10.1, -10.1, -10.1, -10.1, -10.39, -10.08, -9.69, -9.69, -9.69, -9.69, -9.69, -9.69, -8.97, -8.97, -8.72, -8.43, -8.0, -8.0, -7.76, -7.53, -7.53, -7.1, -7.1, -7.1, -7.1, -7.36, -7.36, -7.36, -7.36, -7.36, -7.36, -7.36, -7.36, -6.89, -6.89, -6.89, -6.68, -6.68, -6.72, -6.25, -6.04, -5.55, -5.36, -5.4, -4.9, -4.72, -4.72, -4.26, -4.08, -3.57, -3.42, -2.39, -2.53, -2.46, -1.78, -1.22, -1.22, -0.67, 0.0, 0.0, 2.17, 5.72, 6.95, 8.4, 8.4, 8.8, 8.18, 8.55, 9.3, 8.22, 7.28, 7.54, 6.0, 6.4, 6.37, 7.98, 10.08, 11.73, 13.65, 14.2, 13.45, 11.02, 7.14, 3.51, 0.72, 0.0, -4.1, -4.93, -6.94, -8.53, -7.85, -7.95, -7.95, -7.95, -7.95, -10.75, -10.75, -10.75, -10.11, -10.1, -10.1, -10.1, -10.1, -9.79, -9.69, -9.69, -9.69, -9.69, -9.69, -9.69, -8.72, -8.72, -8.72, -8.72, -8.28, -8.04, -7.76, -7.53, -7.53, -7.1, -7.1, -7.1, -7.1, -7.36, -7.36, -7.36, -7.36, -7.36, -7.36, -7.36, -7.36, -7.36, -6.89, -6.68, -6.68, -6.46, -6.72, -6.04, -6.04, -6.04, -5.36, -5.4, -4.9, -4.72, -4.72, -4.26, -4.26, -4.08, -3.57, -2.9, -2.39, -2.42, -1.75, -1.2, -1.22, -0.58, 0.0, 0.0, 0.99, 4.96, 8.23, 9.2, 8.8, 7.87, 7.68, 7.27, 8.38, 8.22, 7.73, 7.28, 7.11, 6.73, 8.2, 9.34, 10.02, 10.08, 11.16, 15.51, 17.17, 14.29, 8.01, 4.23, 0.68, -1.43, -2.45, -8.85, -9.42, -8.93, -8.49, -7.9, -7.59, -7.59, -7.59, -10.43, -10.43, -10.11, -10.11, -10.11, -9.8, -9.8, -10.1, -9.79, -9.42, -9.42, -9.42, -9.42, -9.42, -9.42, -8.72, -8.72, -8.72, -8.72, -8.04, -8.04, -7.53, -7.53, -7.53, -7.53, -7.1, -7.1, -7.36, -7.36, -7.36, -7.36, -7.59, -7.59, -7.59, -7.36, -7.36, -7.36, -7.13, -7.13, -6.46, -6.46, -6.5, -6.5, -6.04, -5.83, -5.6, -5.4, -5.4, -4.72, -4.72, -4.76, -4.26, -4.26, -3.57, -2.9, -2.9, -2.39, -2.28, -1.67, -1.14, -1.14, -0.58, 0.0, 0.85, 4.21, 6.98, 8.8, 8.18, 7.68, 7.68, 6.95, 7.27, 7.9, 7.73, 8.01, 8.44, 8.05, 8.83, 8.94, 9.92, 9.39, 10.68, 13.76, 15.75, 14.13, 8.01, 1.4, 0.0, 0.0, 3.04, -3.82, -9.97, -9.2, -8.73, -7.9, -7.56, -7.56, -7.56, -10.43, -10.43, -10.11, -10.11, -10.11, -9.8, -9.8, -9.8, -9.44, -9.42, -9.42, -9.42, -9.42, -9.42, -9.42, -9.39, -8.72, -8.72, -8.46, -8.04, -7.8, -7.8, -7.53, -7.53, -7.53, -7.53, -7.1, -7.36, -7.36, -7.36, -7.59, -7.59, -7.59, -7.59, -7.36, -7.36, -7.36, -7.13, -7.13, -6.46, -6.72, -6.5, -6.5, -5.83, -5.83, -5.6, -5.4, -5.4, -4.72, -4.72, -4.95, -4.26, -4.26, -3.57, -3.57, -2.9, -2.93, -2.28, -2.3, -1.67, -1.14, -1.16, -0.63, 0.0, 3.17, 6.32, 8.05, 8.55, 7.9, 8.55, 8.03, 6.95, 6.95, 6.71, 8.53, 8.85, 9.17, 9.17, 9.13, 9.22, 8.68, 9.22, 10.02, 10.41, 9.79, 2.17, 0.72, 0.76, 1.76, 5.0, 4.08, -2.28, -8.94, -9.2, -8.23, -7.68, -7.68, -7.68, -10.43, -10.12, -9.8, -9.8, -9.8, -9.8, -9.5, -9.8, -9.44, -9.44, -9.44, -9.14, -9.42, -9.69, -9.69, -9.42, -8.72, -8.46, -8.46, -8.2, -7.8, -7.8, -7.8, -7.8, -7.53, -7.8, -7.36, -7.36, -7.59, -7.59, -7.59, -7.59, -7.59, -7.59, -7.36, -7.36, -7.36, -7.13, -7.4, -6.72, -6.72, -6.5, -6.5, -5.83, -6.08, -5.4, -5.4, -5.4, -4.72, -4.72, -4.95, -4.95, -4.26, -4.08, -3.57, -3.42, -2.93, -2.8, -2.3, -1.75, -1.78, -1.07, -0.63, 0.0, 2.09, 5.06, 7.51, 8.05, 8.18, 8.93, 8.73, 8.24, 8.82, 8.8, 9.58, 8.93, 9.5, 8.44, 8.73, 8.31, 8.78, 8.78, 8.2, 5.96, 1.65, 0.0, 0.73, 0.71, 1.11, 1.39, 2.51, 0.74, -3.19, -7.9, -7.59, -6.95, -6.95, -6.95, -10.12, -10.12, -9.5, -9.5, -9.5, -9.8, -9.5, -9.5, -9.16, -9.44, -9.73, -9.73, -10.02, -9.42, -9.42, -9.42, -8.75, -8.75, -8.2, -8.2, -7.8, -7.8, -7.8, -7.8, -7.8, -7.8, -7.8, -7.59, -7.59, -7.59, -7.59, -7.59, -7.59, -7.59, -7.36, -7.36, -7.13, -7.13, -7.16, -6.72, -6.5, -6.5, -6.27, -6.08, -6.08, -5.86, -5.4, -5.4, -5.4, -4.72, -4.95, -4.95, -4.43, -4.26, -3.57, -3.42, -2.93, -2.8, -2.3, -2.3, -1.67, -1.14, -0.63, 0.0, 0.94, 4.56, 7.81, 8.4, 8.43, 7.33, 8.18, 7.9, 8.73, 9.2, 9.55, 10.0, 9.27, 8.85, 8.44, 7.54, 8.05, 7.69, 7.06, 2.01, 1.63, 0.74, 1.41, 0.7, 0.0, -2.16, -1.64, -1.43, -1.77, -4.32, -8.93, -7.27, -7.27, -7.27, -10.09, -10.09, -9.5, -9.5, -9.5, -9.5, -9.5, -9.5, -9.44, -9.73, -9.73, -9.73, -9.73, -9.42, -9.42, -9.14, -8.75, -8.75, -8.49, -8.2, -8.2, -7.8, -7.8, -7.8, -7.8, -8.04, -8.04, -8.04, -8.04, -8.04, -8.04, -8.04, -7.59, -7.36, -7.36, -7.36, -7.13, -7.4, -7.16, -6.72, -6.5, -6.5, -6.53, -6.08, -6.08, -5.86, -5.4, -5.4, -5.4, -4.9, -5.14, -5.14, -4.43, -4.26, -4.08, -3.61, -3.45, -2.8, -2.83, -2.3, -1.78, -1.14, -1.16, 0.0, 0.0, 2.82, 5.37, 7.21, 7.27, 6.17, 7.27, 7.27, 7.27, 8.55, 8.82, 9.6, 9.67, 8.53, 8.15, 7.28, 8.44, 7.69, 6.1, 5.93, 5.73, 4.35, 2.87, 0.7, -1.71, -5.2, -6.0, -4.15, -2.19, 0.0, -7.59, -7.27, -7.27, -7.27, -9.77, -9.77, -9.5, -9.5, -9.5, -9.8, -9.8, -9.8, -9.44, -9.44, -9.44, -9.73, -9.44, -9.44, -9.14, -9.14, -9.14, -8.75, -8.75, -8.49, -8.46, -8.46, -8.04, -8.04, -8.04, -8.04, -8.28, -8.28, -8.04, -8.04, -8.04, -8.04, -7.36, -7.36, -7.36, -7.13, -7.4, -7.4, -7.16, -6.72, -6.5, -6.76, -6.53, -6.08, -6.08, -5.86, -5.86, -5.4, -5.4, -5.4, -5.14, -5.14, -4.95, -4.26, -4.08, -3.61, -3.45, -2.8, -2.83, -2.3, -2.33, -1.69, -1.16, -0.69, 0.0, 1.32, 3.6, 5.69, 5.7, 4.8, 6.44, 6.44, 7.59, 8.03, 8.43, 7.87, 8.93, 8.93, 8.85, 8.15, 7.28, 7.11, 7.4, 9.14, 9.47, 6.5, 4.01, 1.6, -1.33, -8.94, -9.7, -5.2, 0.0, 6.2, 5.0, 3.11, 3.11, 3.11, -9.77, -9.77, -9.8, -9.5, -9.8, -9.8, -9.8, -9.8, -9.44, -9.44, -9.44, -9.44, -9.44, -9.44, -9.44, -9.14, -9.14, -8.75, -8.75, -8.75, -8.75, -8.46, -8.04, -8.28, -8.28, -8.28, -8.28, -8.04, -8.04, -8.04, -8.04, -7.8, -7.8, -7.36, -7.36, -7.13, -7.4, -7.16, -6.72, -6.5, -6.76, -6.76, -6.53, -6.08, -6.08, -5.86, -5.86, -5.4, -5.4, -5.4, -5.65, -5.14, -4.95, -4.26, -4.3, -4.12, -3.45, -3.3, -2.97, -2.83, -2.19, -2.21, -1.81, -0.73, 0.0, 0.0, 1.4, 1.67, 3.15, 4.8, 4.8, 5.52, 7.59, 8.82, 8.23, 7.27, 7.27, 6.98, 6.45, 7.73, 7.28, 5.81, 5.65, 6.64, 8.01, 5.53, 3.51, 2.81, 1.01, -6.2, -11.62, 8.22, 9.3, 6.97, 5.75, 6.42, 6.42, 6.42, -9.77, -9.77, -9.8, -9.8, -9.5, -9.5, -9.5, -9.5, -9.46, -9.16, -9.16, -9.16, -9.44, -9.44, -9.44, -9.44, -9.44, -9.42, -9.02, -9.02, -9.02, -9.02, -8.28, -8.28, -8.28, -8.28, -8.28, -8.04, -8.04, -8.04, -7.8, -7.8, -7.8, -7.36, -7.13, -7.4, -7.4, -7.16, -6.72, -6.5, -6.76, -6.76, -6.53, -6.53, -6.08, -6.08, -5.86, -5.86, -5.4, -5.4, -5.4, -4.95, -4.76, -4.76, -4.3, -4.12, -3.45, -3.65, -3.49, -2.83, -2.3, -2.33, -1.81, -1.44, -0.89, 0.0, 0.0, 0.0, 1.67, 2.49, 4.6, 6.44, 7.27, 7.87, 6.95, 6.95, 7.87, 6.17, 5.52, 6.45, 4.55, 4.38, 1.42, 1.28, 2.25, 2.05, 2.12, 2.11, 1.36, 0.0, 0.0, 6.97, 7.24, 5.98, 6.2, 6.2, 6.2, 6.2, -9.77, -9.77, -9.48, -9.48, -9.19, -9.19, -9.5, -9.5, -9.17, -9.17, -9.16, -9.44, -9.44, -9.44, -9.73, -9.73, -9.73, -9.73, -9.02, -9.02, -9.02, -9.02, -9.02, -8.28, -8.04, -8.28, -8.04, -8.04, -7.8, -7.8, -7.8, -7.8, -7.8, -7.13, -7.4, -7.4, -7.16, -7.16, -6.72, -6.76, -6.76, -6.76, -6.53, -6.53, -6.08, -6.08, -5.86, -5.86, -5.4, -5.4, -5.4, -4.95, -4.76, -4.76, -4.3, -4.12, -3.94, -3.65, -3.49, -3.32, -2.83, -2.33, -1.81, -2.06, -1.67, -1.05, 0.0, 0.0, 0.0, 2.49, 4.6, 6.17, 6.95, 7.51, 6.64, 6.64, 6.64, 5.63, 6.17, 4.58, 4.39, 2.63, 0.0, -1.16, -1.13, 0.0, 0.0, 0.7, 2.17, 2.85, 4.1, 5.43, 5.43, 4.65, 5.18, 5.6, 5.6, 5.6, -9.48, -9.48, -9.48, -9.48, -9.48, -9.19, -9.19, -9.5, -9.17, -9.46, -9.46, -9.44, -9.44, -9.73, -9.73, -9.73, -9.73, -9.73, -9.33, -9.33, -9.02, -8.75, -9.02, -8.58, -8.04, -8.04, -8.04, -7.8, -7.8, -7.8, -7.8, -7.8, -7.8, -7.4, -7.4, -7.16, -7.16, -7.16, -6.5, -6.76, -6.76, -6.76, -6.76, -6.53, -6.53, -6.08, -5.86, -5.86, -5.86, -5.4, -5.2, -5.23, -4.76, -4.57, -4.8, -4.12, -4.12, -3.45, -3.49, -3.32, -2.86, -2.86, -2.5, -2.69, -2.23, -1.84, -1.11, 0.0, 0.0, 1.47, 2.97, 5.0, 4.6, 5.63, 5.63, 5.63, 5.63, 5.06, 3.82, 3.68, 3.04, 1.33, 0.0, -1.03, -2.27, -2.21, 0.0, 0.71, 2.87, 5.01, 5.73, 5.1, 4.46, 4.51, 4.65, 4.1, 4.1, 4.1, -9.48, -9.48, -9.48, -9.48, -9.48, -9.19, -9.19, -9.5, -9.5, -9.46, -9.46, -9.76, -9.44, -9.73, -9.73, -9.73, -9.33, -9.33, -9.33, -9.33, -9.06, -8.75, -9.02, -9.02, -8.33, -8.04, -7.8, -7.8, -7.8, -7.8, -7.8, -7.8, -7.4, -7.4, -7.4, -7.16, -7.16, -6.92, -6.5, -6.76, -6.76, -6.76, -6.76, -6.76, -6.53, -6.08, -5.86, -5.86, -5.86, -5.4, -5.44, -5.23, -4.76, -4.57, -4.6, -4.12, -4.12, -3.94, -3.49, -3.32, -3.52, -2.86, -3.05, -2.69, -2.23, -1.67, -0.99, -1.11, 0.0, 0.0, 1.54, 2.71, 2.49, 3.39, 5.21, 4.4, 3.65, 3.65, 1.69, 1.52, 1.5, 0.0, 0.0, 0.0, -1.05, 0.0, 0.88, 3.09, 4.34, 5.8, 5.65, 5.65, 4.87, 4.1, 3.87, 3.34, 3.34, 3.34, -9.48, -9.48, -9.48, -9.48, -9.48, -9.48, -9.19, -9.5, -9.5, -9.46, -9.46, -9.76, -9.76, -9.44, -9.44, -9.44, -9.06, -9.06, -9.06, -9.06, -9.06, -9.06, -8.75, -8.75, -8.33, -8.08, -7.8, -7.8, -7.8, -7.8, -7.8, -7.83, -7.4, -7.4, -7.16, -7.16, -7.16, -6.92, -6.76, -6.76, -6.76, -6.76, -6.76, -6.53, -6.53, -6.53, -5.86, -5.86, -5.86, -5.2, -5.44, -5.23, -4.76, -4.57, -4.8, -4.12, -4.12, -4.16, -3.49, -3.49, -3.32, -2.86, -3.05, -2.69, -2.06, -1.67, -1.75, -0.99, -1.11, 0.0, 0.0, 0.0, 1.54, 3.68, 4.2, 2.39, 1.93, 1.93, 1.69, 0.0, 0.0, 0.0, 0.0, 0.0, 0.0, 2.17, 3.97, 4.74, 5.56, 6.26, 6.42, 6.21, 5.73, 4.95, 3.66, 3.81, 3.81, 3.81, -9.48, -9.48, -9.48, -9.48, -9.48, -9.48, -9.19, -9.5, -9.5, -9.46, -9.46, -9.76, -9.76, -9.44, -9.44, -9.44, -9.06, -9.06, -9.06, -9.06, -9.06, -9.06, -8.75, -8.75, -8.33, -8.08, -7.8, -7.8, -7.8, -7.8, -7.8, -7.83, -7.4, -7.4, -7.16, -7.16, -7.16, -6.92, -6.76, -6.76, -6.76, -6.76, -6.76, -6.53, -6.53, -6.53, -5.86, -5.86, -5.86, -5.2, -5.44, -5.23, -4.76, -4.57, -4.8, -4.12, -4.12, -4.16, -3.49, -3.49, -3.32, -2.86, -3.05, -2.69, -2.06, -1.67, -1.75, -0.99, -1.11, 0.0, 0.0, 0.0, 1.54, 3.68, 4.2, 2.39, 1.93, 1.93, 1.69, 0.0, 0.0, 0.0, 0.0, 0.0, 0.95, 2.84, 5.25, 6.37, 6.57, 6.26, 7.11, 7.11, 6.21, 5.41, 4.81, 4.99, 4.99, 4.99]}]